Time,TemperatureF,DewpointF,PressureIn,WindDirection,WindDirectionDegrees,WindSpeedMPH,WindSpeedGustMPH,Humidity,HourlyPrecipIn,Conditions,Clouds,dailyrainin,SoftwareType,DateUTC
2013-08-18 00:02:00,63.3,56.7,29.91,ENE,68,0.0,2.7,79,0.00,,,0.00,VWS V14.01,2013-08-18 07:02:00,
2013-08-18 00:03:00,63.3,56.7,29.91,ENE,68,0.0,2.7,79,0.00,,,0.00,VWS V14.01,2013-08-18 07:03:00,
2013-08-18 00:04:00,63.3,56.7,29.91,WSW,248,0.0,2.7,79,0.00,,,0.00,VWS V14.01,2013-08-18 07:04:00,
2013-08-18 00:07:00,63.3,56.7,29.91,WSW,248,0.0,2.7,79,0.00,,,0.00,VWS V14.01,2013-08-18 07:07:00,
2013-08-18 00:08:00,63.3,56.7,29.91,East,90,0.0,2.7,79,0.00,,,0.00,VWS V14.01,2013-08-18 07:08:00,
2013-08-18 00:09:00,63.3,56.7,29.91,East,90,0.0,2.7,79,0.00,,,0.00,VWS V14.01,2013-08-18 07:09:00,
2013-08-18 00:12:00,63.3,56.7,29.91,WSW,248,0.0,1.6,79,0.00,,,0.00,VWS V14.01,2013-08-18 07:12:00,
2013-08-18 00:13:00,63.3,56.7,29.91,WNW,292,0.0,1.6,79,0.00,,,0.00,VWS V14.01,2013-08-18 07:13:00,
2013-08-18 00:14:00,63.3,56.7,29.91,NNE,22,0.0,1.6,79,0.00,,,0.00,VWS V14.01,2013-08-18 07:14:00,
2013-08-18 00:17:00,63.1,56.5,29.94,West,270,2.5,2.5,79,0.00,,,0.00,VWS V14.01,2013-08-18 07:17:00,
2013-08-18 00:18:00,63.1,56.5,29.94,WSW,248,0.9,2.5,79,0.00,,,0.00,VWS V14.01,2013-08-18 07:18:00,
2013-08-18 00:19:00,63.1,56.5,29.94,WSW,248,0.0,2.5,79,0.00,,,0.00,VWS V14.01,2013-08-18 07:19:00,
2013-08-18 00:22:00,63.1,56.5,29.94,SSE,158,0.0,2.5,79,0.00,,,0.00,VWS V14.01,2013-08-18 07:22:00,
2013-08-18 00:23:00,63.1,56.5,29.94,WNW,292,0.0,2.9,79,0.00,,,0.00,VWS V14.01,2013-08-18 07:23:00,
2013-08-18 00:24:00,63.1,56.5,29.94,WNW,292,0.0,2.9,79,0.00,,,0.00,VWS V14.01,2013-08-18 07:24:00,
2013-08-18 00:27:00,63.1,56.5,29.94,West,270,2.2,2.9,79,0.00,,,0.00,VWS V14.01,2013-08-18 07:27:00,
2013-08-18 00:28:00,63.1,56.5,29.94,WNW,292,3.1,3.1,79,0.00,,,0.00,VWS V14.01,2013-08-18 07:28:00,
2013-08-18 00:29:00,63.1,56.5,29.94,WNW,292,0.0,3.1,79,0.00,,,0.00,VWS V14.01,2013-08-18 07:29:00,
2013-08-18 00:30:00,63.0,56.3,29.94,SSE,158,1.1,3.1,79,0.00,,,0.00,VWS V14.01,2013-08-18 07:30:00,
2013-08-18 00:32:00,63.1,56.5,29.94,West,270,0.0,3.1,79,0.00,,,0.00,VWS V14.01,2013-08-18 07:32:00,
2013-08-18 00:33:00,63.1,56.5,29.94,West,270,0.0,3.1,79,0.00,,,0.00,VWS V14.01,2013-08-18 07:33:00,
2013-08-18 00:34:00,63.1,56.5,29.94,West,270,0.0,3.1,79,0.00,,,0.00,VWS V14.01,2013-08-18 07:34:00,
2013-08-18 00:35:00,63.1,56.5,29.94,NNW,338,0.0,3.1,79,0.00,,,0.00,VWS V14.01,2013-08-18 07:35:00,
2013-08-18 00:37:00,63.1,56.5,29.94,WNW,292,0.0,3.1,79,0.00,,,0.00,VWS V14.01,2013-08-18 07:37:00,
2013-08-18 00:38:00,63.1,56.5,29.94,West,270,1.6,3.1,79,0.00,,,0.00,VWS V14.01,2013-08-18 07:38:00,
2013-08-18 00:39:00,63.1,56.5,29.94,West,270,0.0,3.1,79,0.00,,,0.00,VWS V14.01,2013-08-18 07:39:00,
2013-08-18 00:40:00,63.0,56.3,29.94,West,270,0.0,3.1,79,0.00,,,0.00,VWS V14.01,2013-08-18 07:40:00,
2013-08-18 00:42:00,63.0,56.3,29.94,ESE,112,0.0,3.1,79,0.00,,,0.00,VWS V14.01,2013-08-18 07:42:00,
2013-08-18 00:44:00,63.0,56.3,29.94,WNW,292,0.0,1.6,79,0.00,,,0.00,VWS V14.01,2013-08-18 07:44:00,
2013-08-18 00:45:00,63.0,56.3,29.94,WNW,292,0.0,1.6,79,0.00,,,0.00,VWS V14.01,2013-08-18 07:45:00,
2013-08-18 00:47:00,63.0,56.3,29.94,West,270,0.0,1.6,79,0.00,,,0.00,VWS V14.01,2013-08-18 07:47:00,
2013-08-18 00:49:00,63.0,56.3,29.94,WSW,248,0.9,1.6,79,0.00,,,0.00,VWS V14.01,2013-08-18 07:49:00,
2013-08-18 00:50:00,63.0,56.3,29.94,WSW,248,0.9,1.6,79,0.00,,,0.00,VWS V14.01,2013-08-18 07:50:00,
2013-08-18 00:52:00,63.0,56.3,29.94,WSW,248,0.0,2.0,79,0.00,,,0.00,VWS V14.01,2013-08-18 07:52:00,
2013-08-18 00:54:00,63.0,56.3,29.94,WSW,248,0.0,2.0,79,0.00,,,0.00,VWS V14.01,2013-08-18 07:54:00,
2013-08-18 00:55:00,63.0,56.3,29.94,WNW,292,0.0,2.0,79,0.00,,,0.00,VWS V14.01,2013-08-18 07:55:00,
2013-08-18 00:58:00,63.0,56.3,29.94,WNW,292,0.0,2.0,79,0.00,,,0.00,VWS V14.01,2013-08-18 07:58:00,
2013-08-18 00:59:00,63.0,56.3,29.94,WNW,292,0.0,2.0,79,0.00,,,0.00,VWS V14.01,2013-08-18 07:59:00,
2013-08-18 01:00:00,62.8,56.2,29.94,WNW,292,0.0,2.0,79,0.00,,,0.00,VWS V14.01,2013-08-18 08:00:00,
2013-08-18 01:03:00,63.0,56.3,29.94,NE,45,0.0,2.0,79,0.00,,,0.00,VWS V14.01,2013-08-18 08:03:00,
2013-08-18 01:04:00,63.0,56.3,29.94,NNW,338,0.0,2.0,79,0.00,,,0.00,VWS V14.01,2013-08-18 08:04:00,
2013-08-18 01:05:00,63.0,56.3,29.94,West,270,0.0,2.0,79,0.00,,,0.00,VWS V14.01,2013-08-18 08:05:00,
2013-08-18 01:08:00,62.8,56.2,29.94,WNW,292,0.0,0.0,79,0.00,,,0.00,VWS V14.01,2013-08-18 08:08:00,
2013-08-18 01:09:00,62.8,56.2,29.94,WSW,248,0.0,0.0,79,0.00,,,0.00,VWS V14.01,2013-08-18 08:09:00,
2013-08-18 01:10:00,62.8,56.2,29.94,WSW,248,0.0,0.0,79,0.00,,,0.00,VWS V14.01,2013-08-18 08:10:00,
2013-08-18 01:13:00,62.8,56.2,29.94,West,270,0.0,0.0,79,0.00,,,0.00,VWS V14.01,2013-08-18 08:13:00,
2013-08-18 01:14:00,62.8,56.2,29.94,WNW,292,0.0,0.0,79,0.00,,,0.00,VWS V14.01,2013-08-18 08:14:00,
2013-08-18 01:15:00,62.8,56.2,29.94,WSW,248,0.0,0.0,79,0.00,,,0.00,VWS V14.01,2013-08-18 08:15:00,
2013-08-18 01:18:00,62.8,56.5,29.94,SSW,202,0.0,0.0,80,0.00,,,0.00,VWS V14.01,2013-08-18 08:18:00,
2013-08-18 01:19:00,62.8,56.2,29.94,WSW,248,0.0,0.0,79,0.00,,,0.00,VWS V14.01,2013-08-18 08:19:00,
2013-08-18 01:20:00,62.8,56.5,29.94,SE,135,0.9,0.9,80,0.00,,,0.00,VWS V14.01,2013-08-18 08:20:00,
2013-08-18 01:23:00,62.8,56.5,29.94,WSW,248,0.0,1.1,80,0.00,,,0.00,VWS V14.01,2013-08-18 08:23:00,
2013-08-18 01:24:00,62.8,56.5,29.94,WSW,248,0.0,1.1,80,0.00,,,0.00,VWS V14.01,2013-08-18 08:24:00,
2013-08-18 01:25:00,62.8,56.5,29.94,SSW,202,0.0,1.1,80,0.00,,,0.00,VWS V14.01,2013-08-18 08:25:00,
2013-08-18 01:28:00,62.8,56.5,29.94,ESE,112,0.0,1.1,80,0.00,,,0.00,VWS V14.01,2013-08-18 08:28:00,
2013-08-18 01:29:00,62.8,56.5,29.94,West,270,0.0,1.1,80,0.00,,,0.00,VWS V14.01,2013-08-18 08:29:00,
2013-08-18 01:30:00,62.8,56.5,29.94,WNW,292,0.0,1.1,80,0.00,,,0.00,VWS V14.01,2013-08-18 08:30:00,
2013-08-18 01:33:00,62.8,56.5,29.94,West,270,0.0,0.0,80,0.00,,,0.00,VWS V14.01,2013-08-18 08:33:00,
2013-08-18 01:34:00,62.8,56.5,29.94,West,270,0.0,0.0,80,0.00,,,0.00,VWS V14.01,2013-08-18 08:34:00,
2013-08-18 01:35:00,62.8,56.5,29.94,West,270,0.0,0.0,80,0.00,,,0.00,VWS V14.01,2013-08-18 08:35:00,
2013-08-18 01:38:00,62.8,56.5,29.94,West,270,0.0,0.0,80,0.00,,,0.00,VWS V14.01,2013-08-18 08:38:00,
2013-08-18 01:39:00,62.8,56.5,29.94,West,270,0.0,0.0,80,0.00,,,0.00,VWS V14.01,2013-08-18 08:39:00,
2013-08-18 01:40:00,62.8,56.5,29.94,WNW,292,0.0,0.0,80,0.00,,,0.00,VWS V14.01,2013-08-18 08:40:00,
2013-08-18 01:43:00,62.8,56.5,29.94,WNW,292,0.0,0.0,80,0.00,,,0.00,VWS V14.01,2013-08-18 08:43:00,
2013-08-18 01:44:00,62.8,56.5,29.94,WNW,292,0.0,0.0,80,0.00,,,0.00,VWS V14.01,2013-08-18 08:44:00,
2013-08-18 01:45:00,62.8,56.5,29.94,WNW,292,0.0,0.0,80,0.00,,,0.00,VWS V14.01,2013-08-18 08:45:00,
2013-08-18 01:48:00,62.6,56.3,29.94,WNW,292,0.9,0.9,80,0.00,,,0.00,VWS V14.01,2013-08-18 08:48:00,
2013-08-18 01:49:00,62.6,56.3,29.94,WNW,292,0.0,0.9,80,0.00,,,0.00,VWS V14.01,2013-08-18 08:49:00,
2013-08-18 01:50:00,62.6,56.3,29.94,WNW,292,0.0,0.9,80,0.00,,,0.00,VWS V14.01,2013-08-18 08:50:00,
2013-08-18 01:53:00,62.6,56.3,29.94,NNW,338,0.0,0.9,80,0.00,,,0.00,VWS V14.01,2013-08-18 08:53:00,
2013-08-18 01:54:00,62.6,56.3,29.94,NNW,338,0.0,0.9,80,0.00,,,0.00,VWS V14.01,2013-08-18 08:54:00,
2013-08-18 01:55:00,62.6,56.3,29.94,WNW,292,0.0,0.9,80,0.00,,,0.00,VWS V14.01,2013-08-18 08:55:00,
2013-08-18 01:58:00,62.6,56.3,29.94,WNW,292,0.0,0.0,80,0.00,,,0.00,VWS V14.01,2013-08-18 08:58:00,
2013-08-18 01:59:00,62.6,56.3,29.94,WNW,292,0.0,0.0,80,0.00,,,0.00,VWS V14.01,2013-08-18 08:59:00,
2013-08-18 02:00:00,62.6,56.3,29.94,WNW,292,0.0,0.0,80,0.00,,,0.00,VWS V14.01,2013-08-18 09:00:00,
2013-08-18 02:03:00,62.6,56.3,29.94,North,0,0.0,0.0,80,0.00,,,0.00,VWS V14.01,2013-08-18 09:03:00,
2013-08-18 02:04:00,62.6,56.3,29.94,North,0,0.0,0.0,80,0.00,,,0.00,VWS V14.01,2013-08-18 09:04:00,
2013-08-18 02:05:00,62.6,56.3,29.94,North,0,0.0,0.0,80,0.00,,,0.00,VWS V14.01,2013-08-18 09:05:00,
2013-08-18 02:08:00,62.6,56.3,29.94,WSW,248,0.0,0.0,80,0.00,,,0.00,VWS V14.01,2013-08-18 09:08:00,
2013-08-18 02:09:00,62.6,56.3,29.94,NNW,338,0.0,0.0,80,0.00,,,0.00,VWS V14.01,2013-08-18 09:09:00,
2013-08-18 02:10:00,62.6,56.3,29.94,WNW,292,0.9,0.9,80,0.00,,,0.00,VWS V14.01,2013-08-18 09:10:00,
2013-08-18 02:14:00,62.6,56.3,29.94,West,270,0.0,0.9,80,0.00,,,0.00,VWS V14.01,2013-08-18 09:14:00,
2013-08-18 02:15:00,62.4,56.2,29.94,West,270,0.9,0.9,80,0.00,,,0.00,VWS V14.01,2013-08-18 09:15:00,
2013-08-18 02:19:00,62.4,56.2,29.94,West,270,0.0,0.9,80,0.00,,,0.00,VWS V14.01,2013-08-18 09:19:00,
2013-08-18 02:20:00,62.4,56.2,29.94,West,270,0.0,0.9,80,0.00,,,0.00,VWS V14.01,2013-08-18 09:20:00,
2013-08-18 02:24:00,62.4,56.2,29.94,WNW,292,0.0,0.9,80,0.00,,,0.00,VWS V14.01,2013-08-18 09:24:00,
2013-08-18 02:25:00,62.4,56.2,29.94,WNW,292,0.0,0.9,80,0.00,,,0.00,VWS V14.01,2013-08-18 09:25:00,
2013-08-18 02:29:00,62.4,56.2,29.94,WNW,292,0.0,0.0,80,0.00,,,0.00,VWS V14.01,2013-08-18 09:29:00,
2013-08-18 02:30:00,62.4,56.2,29.94,WSW,248,0.0,0.9,80,0.00,,,0.00,VWS V14.01,2013-08-18 09:30:00,
2013-08-18 02:31:00,62.4,56.2,29.94,WSW,248,0.0,0.9,80,0.00,,,0.00,VWS V14.01,2013-08-18 09:31:00,
2013-08-18 02:34:00,62.4,56.2,29.94,West,270,0.0,0.9,80,0.00,,,0.00,VWS V14.01,2013-08-18 09:34:00,
2013-08-18 02:35:00,62.4,56.2,29.94,WSW,248,0.0,0.9,80,0.00,,,0.00,VWS V14.01,2013-08-18 09:35:00,
2013-08-18 02:36:00,62.4,56.2,29.94,West,270,0.0,0.9,80,0.00,,,0.00,VWS V14.01,2013-08-18 09:36:00,
2013-08-18 02:39:00,62.4,56.2,29.94,WNW,292,0.0,0.9,80,0.00,,,0.00,VWS V14.01,2013-08-18 09:39:00,
2013-08-18 02:40:00,62.4,56.2,29.94,WNW,292,0.0,0.9,80,0.00,,,0.00,VWS V14.01,2013-08-18 09:40:00,
2013-08-18 02:41:00,62.4,56.2,29.94,WSW,248,0.0,0.0,80,0.00,,,0.00,VWS V14.01,2013-08-18 09:41:00,
2013-08-18 02:44:00,62.2,56.0,29.94,WNW,292,0.0,1.1,80,0.00,,,0.00,VWS V14.01,2013-08-18 09:44:00,
2013-08-18 02:45:00,62.2,56.0,29.94,WNW,292,0.0,1.1,80,0.00,,,0.00,VWS V14.01,2013-08-18 09:45:00,
2013-08-18 02:46:00,62.2,56.0,29.94,West,270,0.9,1.1,80,0.00,,,0.00,VWS V14.01,2013-08-18 09:46:00,
2013-08-18 02:49:00,62.2,56.0,29.94,WNW,292,0.0,1.1,80,0.00,,,0.00,VWS V14.01,2013-08-18 09:49:00,
2013-08-18 02:50:00,62.2,56.0,29.94,WNW,292,0.0,1.1,80,0.00,,,0.00,VWS V14.01,2013-08-18 09:50:00,
2013-08-18 02:51:00,62.2,56.0,29.94,WNW,292,0.0,1.1,80,0.00,,,0.00,VWS V14.01,2013-08-18 09:51:00,
2013-08-18 02:54:00,62.2,56.0,29.94,WSW,248,0.0,1.1,80,0.00,,,0.00,VWS V14.01,2013-08-18 09:54:00,
2013-08-18 02:55:00,62.2,56.0,29.94,WSW,248,0.0,1.1,80,0.00,,,0.00,VWS V14.01,2013-08-18 09:55:00,
2013-08-18 02:56:00,62.2,56.0,29.94,WSW,248,0.0,1.1,80,0.00,,,0.00,VWS V14.01,2013-08-18 09:56:00,
2013-08-18 02:59:00,62.2,56.0,29.94,West,270,0.0,0.9,80,0.00,,,0.00,VWS V14.01,2013-08-18 09:59:00,
2013-08-18 03:00:00,62.2,56.0,29.94,SW,225,0.0,0.9,80,0.00,,,0.00,VWS V14.01,2013-08-18 10:00:00,
2013-08-18 03:01:00,62.2,56.0,29.94,West,270,0.0,0.9,80,0.00,,,0.00,VWS V14.01,2013-08-18 10:01:00,
2013-08-18 03:04:00,62.2,56.0,29.94,WNW,292,0.0,0.0,80,0.00,,,0.00,VWS V14.01,2013-08-18 10:04:00,
2013-08-18 03:05:00,62.2,56.0,29.94,WNW,292,0.0,0.0,80,0.00,,,0.00,VWS V14.01,2013-08-18 10:05:00,
2013-08-18 03:06:00,62.2,56.0,29.94,WNW,292,0.0,0.0,80,0.00,,,0.00,VWS V14.01,2013-08-18 10:06:00,
2013-08-18 03:09:00,62.2,56.3,29.94,WNW,292,0.0,0.0,81,0.00,,,0.00,VWS V14.01,2013-08-18 10:09:00,
2013-08-18 03:10:00,62.2,56.3,29.94,WNW,292,0.0,0.0,81,0.00,,,0.00,VWS V14.01,2013-08-18 10:10:00,
2013-08-18 03:11:00,62.1,56.2,29.94,WNW,292,0.0,0.0,81,0.00,,,0.00,VWS V14.01,2013-08-18 10:11:00,
2013-08-18 03:14:00,62.1,56.2,29.94,West,270,0.0,0.0,81,0.00,,,0.00,VWS V14.01,2013-08-18 10:14:00,
2013-08-18 03:16:00,62.1,56.2,29.94,West,270,0.0,0.0,81,0.00,,,0.00,VWS V14.01,2013-08-18 10:16:00,
2013-08-18 03:19:00,62.1,56.2,29.94,ESE,112,0.0,0.0,81,0.00,,,0.00,VWS V14.01,2013-08-18 10:19:00,
2013-08-18 03:20:00,62.1,56.2,29.94,ESE,112,0.0,0.0,81,0.00,,,0.00,VWS V14.01,2013-08-18 10:20:00,
2013-08-18 03:21:00,62.1,56.2,29.94,WNW,292,0.0,0.0,81,0.00,,,0.00,VWS V14.01,2013-08-18 10:21:00,
2013-08-18 03:24:00,62.1,56.2,29.94,NNW,338,0.0,0.0,81,0.00,,,0.00,VWS V14.01,2013-08-18 10:24:00,
2013-08-18 03:25:00,62.1,56.2,29.94,NNW,338,0.0,0.0,81,0.00,,,0.00,VWS V14.01,2013-08-18 10:25:00,
2013-08-18 03:26:00,62.1,56.2,29.94,WNW,292,0.0,0.0,81,0.00,,,0.00,VWS V14.01,2013-08-18 10:26:00,
2013-08-18 03:29:00,61.9,56.0,29.94,WNW,292,0.0,0.0,81,0.00,,,0.00,VWS V14.01,2013-08-18 10:29:00,
2013-08-18 03:30:00,61.9,56.0,29.94,WNW,292,0.0,0.0,81,0.00,,,0.00,VWS V14.01,2013-08-18 10:30:00,
2013-08-18 03:31:00,61.9,56.0,29.94,West,270,0.0,0.0,81,0.00,,,0.00,VWS V14.01,2013-08-18 10:31:00,
2013-08-18 03:34:00,61.9,56.0,29.94,WNW,292,0.0,0.0,81,0.00,,,0.00,VWS V14.01,2013-08-18 10:34:00,
2013-08-18 03:35:00,61.9,56.0,29.94,WNW,292,0.0,0.0,81,0.00,,,0.00,VWS V14.01,2013-08-18 10:35:00,
2013-08-18 03:36:00,61.9,56.0,29.94,ESE,112,0.0,0.0,81,0.00,,,0.00,VWS V14.01,2013-08-18 10:36:00,
2013-08-18 03:39:00,61.9,56.0,29.94,West,270,0.0,0.0,81,0.00,,,0.00,VWS V14.01,2013-08-18 10:39:00,
2013-08-18 03:40:00,61.9,56.0,29.94,West,270,0.0,0.0,81,0.00,,,0.00,VWS V14.01,2013-08-18 10:40:00,
2013-08-18 03:41:00,61.9,56.0,29.94,WNW,292,0.0,0.0,81,0.00,,,0.00,VWS V14.01,2013-08-18 10:41:00,
2013-08-18 03:44:00,61.9,56.0,29.94,WNW,292,0.0,0.0,81,0.00,,,0.00,VWS V14.01,2013-08-18 10:44:00,
2013-08-18 03:45:00,61.9,56.0,29.94,WSW,248,0.0,0.0,81,0.00,,,0.00,VWS V14.01,2013-08-18 10:45:00,
2013-08-18 03:46:00,61.9,56.0,29.94,WNW,292,0.0,0.0,81,0.00,,,0.00,VWS V14.01,2013-08-18 10:46:00,
2013-08-18 03:49:00,61.9,56.0,29.94,WSW,248,0.0,0.0,81,0.00,,,0.00,VWS V14.01,2013-08-18 10:49:00,
2013-08-18 03:50:00,61.9,56.0,29.94,WSW,248,0.0,0.0,81,0.00,,,0.00,VWS V14.01,2013-08-18 10:50:00,
2013-08-18 03:51:00,61.9,56.0,29.94,WSW,248,0.0,0.0,81,0.00,,,0.00,VWS V14.01,2013-08-18 10:51:00,
2013-08-18 03:54:00,61.9,56.0,29.94,WSW,248,0.0,0.0,81,0.00,,,0.00,VWS V14.01,2013-08-18 10:54:00,
2013-08-18 03:55:00,61.9,56.0,29.94,West,270,0.0,0.0,81,0.00,,,0.00,VWS V14.01,2013-08-18 10:55:00,
2013-08-18 03:56:00,61.9,56.0,29.94,WNW,292,0.0,0.0,81,0.00,,,0.00,VWS V14.01,2013-08-18 10:56:00,
2013-08-18 03:57:00,61.9,56.0,29.94,WNW,292,0.9,0.9,81,0.00,,,0.00,VWS V14.01,2013-08-18 10:57:00,
2013-08-18 03:59:00,61.7,55.8,29.94,WSW,248,0.0,0.9,81,0.00,,,0.00,VWS V14.01,2013-08-18 10:59:00,
2013-08-18 04:00:00,61.7,55.8,29.94,WSW,248,0.0,0.9,81,0.00,,,0.00,VWS V14.01,2013-08-18 11:00:00,
2013-08-18 04:01:00,61.7,55.8,29.94,WNW,292,0.0,0.9,81,0.00,,,0.00,VWS V14.01,2013-08-18 11:01:00,
2013-08-18 04:02:00,61.7,55.8,29.94,WSW,248,0.0,0.9,81,0.00,,,0.00,VWS V14.01,2013-08-18 11:02:00,
2013-08-18 04:05:00,61.7,55.8,29.94,West,270,0.0,0.9,81,0.00,,,0.00,VWS V14.01,2013-08-18 11:05:00,
2013-08-18 04:06:00,61.7,55.5,29.94,West,270,0.0,1.1,80,0.00,,,0.00,VWS V14.01,2013-08-18 11:06:00,
2013-08-18 04:07:00,61.7,55.5,29.94,West,270,0.0,1.1,80,0.00,,,0.00,VWS V14.01,2013-08-18 11:07:00,
2013-08-18 04:10:00,61.7,55.5,29.94,West,270,0.0,1.1,80,0.00,,,0.00,VWS V14.01,2013-08-18 11:10:00,
2013-08-18 04:11:00,61.7,55.5,29.94,West,270,0.0,1.1,80,0.00,,,0.00,VWS V14.01,2013-08-18 11:11:00,
2013-08-18 04:12:00,61.7,55.5,29.94,NW,315,0.0,1.1,80,0.00,,,0.00,VWS V14.01,2013-08-18 11:12:00,
2013-08-18 04:14:00,61.7,55.5,29.94,West,270,0.0,1.1,80,0.00,,,0.00,VWS V14.01,2013-08-18 11:14:00,
2013-08-18 04:15:00,61.7,55.5,29.94,West,270,0.0,1.1,80,0.00,,,0.00,VWS V14.01,2013-08-18 11:15:00,
2013-08-18 04:16:00,61.7,55.5,29.94,WNW,292,0.0,1.1,80,0.00,,,0.00,VWS V14.01,2013-08-18 11:16:00,
2013-08-18 04:17:00,61.7,55.5,29.94,WNW,292,0.0,1.1,80,0.00,,,0.00,VWS V14.01,2013-08-18 11:17:00,
2013-08-18 04:20:00,61.7,55.5,29.94,WSW,248,0.0,1.1,80,0.00,,,0.00,VWS V14.01,2013-08-18 11:20:00,
2013-08-18 04:21:00,61.7,55.5,29.94,WNW,292,0.0,1.1,80,0.00,,,0.00,VWS V14.01,2013-08-18 11:21:00,
2013-08-18 04:22:00,61.7,55.5,29.94,West,270,0.9,1.1,80,0.00,,,0.00,VWS V14.01,2013-08-18 11:22:00,
2013-08-18 04:25:00,61.5,55.3,29.94,West,270,0.0,1.1,80,0.00,,,0.00,VWS V14.01,2013-08-18 11:25:00,
2013-08-18 04:27:00,61.5,55.3,29.94,West,270,0.0,1.1,80,0.00,,,0.00,VWS V14.01,2013-08-18 11:27:00,
2013-08-18 04:30:00,61.5,55.3,29.94,WNW,292,0.0,1.1,80,0.00,,,0.00,VWS V14.01,2013-08-18 11:30:00,
2013-08-18 04:32:00,61.5,55.3,29.94,WNW,292,0.0,1.1,80,0.00,,,0.00,VWS V14.01,2013-08-18 11:32:00,
2013-08-18 04:35:00,61.5,55.3,29.94,WSW,248,0.0,1.1,80,0.00,,,0.00,VWS V14.01,2013-08-18 11:35:00,
2013-08-18 04:37:00,61.5,55.3,29.94,WSW,248,0.0,1.1,80,0.00,,,0.00,VWS V14.01,2013-08-18 11:37:00,
2013-08-18 04:40:00,61.5,55.3,29.94,West,270,0.0,0.0,80,0.00,,,0.00,VWS V14.01,2013-08-18 11:40:00,
2013-08-18 04:42:00,61.5,55.3,29.94,West,270,0.0,0.0,80,0.00,,,0.00,VWS V14.01,2013-08-18 11:42:00,
2013-08-18 04:45:00,61.5,55.3,29.94,SW,225,0.0,0.0,80,0.00,,,0.00,VWS V14.01,2013-08-18 11:45:00,
2013-08-18 04:47:00,61.3,55.1,29.94,WSW,248,0.0,0.0,80,0.00,,,0.00,VWS V14.01,2013-08-18 11:47:00,
2013-08-18 04:48:00,61.3,55.1,29.94,West,270,0.0,0.0,80,0.00,,,0.00,VWS V14.01,2013-08-18 11:48:00,
2013-08-18 04:50:00,61.3,55.5,29.94,West,270,0.0,0.0,81,0.00,,,0.00,VWS V14.01,2013-08-18 11:50:00,
2013-08-18 04:52:00,61.3,55.5,29.94,WNW,292,0.0,0.0,81,0.00,,,0.00,VWS V14.01,2013-08-18 11:52:00,
2013-08-18 04:55:00,61.3,55.1,29.94,WNW,292,0.0,0.0,80,0.00,,,0.00,VWS V14.01,2013-08-18 11:55:00,
2013-08-18 04:57:00,61.3,55.1,29.94,WNW,292,0.0,0.0,80,0.00,,,0.00,VWS V14.01,2013-08-18 11:57:00,
2013-08-18 05:00:00,61.3,55.1,29.94,WNW,292,0.0,0.0,80,0.00,,,0.00,VWS V14.01,2013-08-18 12:00:00,
2013-08-18 05:02:00,61.3,55.1,29.94,WNW,292,0.0,0.0,80,0.00,,,0.00,VWS V14.01,2013-08-18 12:02:00,
2013-08-18 05:03:00,61.3,55.1,29.94,WNW,292,0.0,0.0,80,0.00,,,0.00,VWS V14.01,2013-08-18 12:03:00,
2013-08-18 05:05:00,61.3,55.1,29.94,SSW,202,0.0,0.0,80,0.00,,,0.00,VWS V14.01,2013-08-18 12:05:00,
2013-08-18 05:07:00,61.2,55.0,29.94,West,270,0.0,0.0,80,0.00,,,0.00,VWS V14.01,2013-08-18 12:07:00,
2013-08-18 05:08:00,61.2,55.0,29.94,West,270,0.0,0.0,80,0.00,,,0.00,VWS V14.01,2013-08-18 12:08:00,
2013-08-18 05:10:00,61.2,55.0,29.94,WSW,248,0.0,0.0,80,0.00,,,0.00,VWS V14.01,2013-08-18 12:10:00,
2013-08-18 05:12:00,61.2,55.0,29.94,West,270,0.0,0.0,80,0.00,,,0.00,VWS V14.01,2013-08-18 12:12:00,
2013-08-18 05:13:00,61.2,55.0,29.94,West,270,0.0,0.0,80,0.00,,,0.00,VWS V14.01,2013-08-18 12:13:00,
2013-08-18 05:15:00,61.2,55.0,29.94,WSW,248,0.0,0.0,80,0.00,,,0.00,VWS V14.01,2013-08-18 12:15:00,
2013-08-18 05:17:00,61.2,55.0,29.94,West,270,2.5,2.5,80,0.00,,,0.00,VWS V14.01,2013-08-18 12:17:00,
2013-08-18 05:18:00,61.2,55.0,29.94,West,270,2.5,2.5,80,0.00,,,0.00,VWS V14.01,2013-08-18 12:18:00,
2013-08-18 05:20:00,61.0,54.8,29.94,SSW,202,0.0,2.5,80,0.00,,,0.00,VWS V14.01,2013-08-18 12:20:00,
2013-08-18 05:22:00,61.0,54.8,29.94,WNW,292,0.0,2.5,80,0.00,,,0.00,VWS V14.01,2013-08-18 12:22:00,
2013-08-18 05:23:00,61.0,54.8,29.94,WNW,292,0.0,2.5,80,0.00,,,0.00,VWS V14.01,2013-08-18 12:23:00,
2013-08-18 05:25:00,61.0,54.8,29.94,WSW,248,0.0,2.5,80,0.00,,,0.00,VWS V14.01,2013-08-18 12:25:00,
2013-08-18 05:26:00,61.0,54.8,29.94,WNW,292,0.0,2.5,80,0.00,,,0.00,VWS V14.01,2013-08-18 12:26:00,
2013-08-18 05:27:00,61.0,54.8,29.94,WSW,248,0.0,2.5,80,0.00,,,0.00,VWS V14.01,2013-08-18 12:27:00,
2013-08-18 05:28:00,61.0,54.8,29.94,WNW,292,0.0,2.5,80,0.00,,,0.00,VWS V14.01,2013-08-18 12:28:00,
2013-08-18 05:30:00,61.0,54.8,29.94,WNW,292,0.0,2.5,80,0.00,,,0.00,VWS V14.01,2013-08-18 12:30:00,
2013-08-18 05:31:00,61.0,54.8,29.94,WNW,292,0.0,2.5,80,0.00,,,0.00,VWS V14.01,2013-08-18 12:31:00,
2013-08-18 05:32:00,61.0,54.8,29.94,WNW,292,0.0,2.5,80,0.00,,,0.00,VWS V14.01,2013-08-18 12:32:00,
2013-08-18 05:33:00,61.0,54.8,29.94,WNW,292,0.0,2.5,80,0.00,,,0.00,VWS V14.01,2013-08-18 12:33:00,
2013-08-18 05:35:00,61.0,54.8,29.94,WNW,292,0.0,0.9,80,0.00,,,0.00,VWS V14.01,2013-08-18 12:35:00,
2013-08-18 05:36:00,61.0,54.8,29.94,WNW,292,0.0,0.9,80,0.00,,,0.00,VWS V14.01,2013-08-18 12:36:00,
2013-08-18 05:37:00,61.0,54.8,29.94,WNW,292,0.0,0.0,80,0.00,,,0.00,VWS V14.01,2013-08-18 12:37:00,
2013-08-18 05:38:00,61.0,54.8,29.94,WNW,292,0.0,0.0,80,0.00,,,0.00,VWS V14.01,2013-08-18 12:38:00,
2013-08-18 05:40:00,61.0,54.8,29.94,WNW,292,0.0,0.0,80,0.00,,,0.00,VWS V14.01,2013-08-18 12:40:00,
2013-08-18 05:41:00,61.0,54.8,29.94,WNW,292,0.0,0.0,80,0.00,,,0.00,VWS V14.01,2013-08-18 12:41:00,
2013-08-18 05:42:00,61.0,54.8,29.94,East,90,0.0,0.0,80,0.00,,,0.00,VWS V14.01,2013-08-18 12:42:00,
2013-08-18 05:43:00,61.0,54.8,29.94,East,90,0.0,0.0,80,0.00,,,0.00,VWS V14.01,2013-08-18 12:43:00,
2013-08-18 05:45:00,61.0,54.8,29.94,East,90,0.0,0.0,80,0.00,,,0.00,VWS V14.01,2013-08-18 12:45:00,
2013-08-18 05:46:00,61.0,54.8,29.94,East,90,0.0,0.0,80,0.00,,,0.00,VWS V14.01,2013-08-18 12:46:00,
2013-08-18 05:47:00,60.8,54.6,29.94,East,90,0.0,0.0,80,0.00,,,0.00,VWS V14.01,2013-08-18 12:47:00,
2013-08-18 05:48:00,60.8,54.6,29.94,East,90,0.0,0.0,80,0.00,,,0.00,VWS V14.01,2013-08-18 12:48:00,
2013-08-18 05:50:00,60.8,54.6,29.94,ENE,68,0.0,0.0,80,0.00,,,0.00,VWS V14.01,2013-08-18 12:50:00,
2013-08-18 05:51:00,60.8,54.6,29.94,ENE,68,0.0,0.0,80,0.00,,,0.00,VWS V14.01,2013-08-18 12:51:00,
2013-08-18 05:52:00,60.8,54.6,29.94,East,90,0.0,0.0,80,0.00,,,0.00,VWS V14.01,2013-08-18 12:52:00,
2013-08-18 05:53:00,60.8,54.6,29.94,East,90,0.0,0.0,80,0.00,,,0.00,VWS V14.01,2013-08-18 12:53:00,
2013-08-18 05:55:00,60.8,54.6,29.94,East,90,0.0,0.0,80,0.00,,,0.00,VWS V14.01,2013-08-18 12:55:00,
2013-08-18 05:56:00,60.8,54.6,29.94,East,90,0.0,0.0,80,0.00,,,0.00,VWS V14.01,2013-08-18 12:56:00,
2013-08-18 05:57:00,60.8,54.6,29.94,East,90,0.0,0.0,80,0.00,,,0.00,VWS V14.01,2013-08-18 12:57:00,
2013-08-18 05:58:00,60.8,54.6,29.94,East,90,0.0,0.0,80,0.00,,,0.00,VWS V14.01,2013-08-18 12:58:00,
2013-08-18 06:00:00,60.8,54.6,29.94,SE,135,0.0,0.0,80,0.00,,,0.00,VWS V14.01,2013-08-18 13:00:00,
2013-08-18 06:01:00,60.6,54.8,29.94,East,90,0.0,0.0,81,0.00,,,0.00,VWS V14.01,2013-08-18 13:01:00,
2013-08-18 06:03:00,60.6,54.8,29.94,ESE,112,0.0,0.0,81,0.00,,,0.00,VWS V14.01,2013-08-18 13:03:00,
2013-08-18 06:05:00,60.6,54.8,29.94,NE,45,0.0,0.0,81,0.00,,,0.00,VWS V14.01,2013-08-18 13:05:00,
2013-08-18 06:06:00,60.6,54.8,29.94,North,0,0.0,0.0,81,0.00,,,0.00,VWS V14.01,2013-08-18 13:06:00,
2013-08-18 06:08:00,60.6,54.8,29.94,NNE,22,0.0,0.0,81,0.00,,,0.00,VWS V14.01,2013-08-18 13:08:00,
2013-08-18 06:10:00,60.4,54.6,29.94,East,90,0.0,0.0,81,0.00,,,0.00,VWS V14.01,2013-08-18 13:10:00,
2013-08-18 06:11:00,60.4,54.6,29.94,East,90,0.0,0.0,81,0.00,,,0.00,VWS V14.01,2013-08-18 13:11:00,
2013-08-18 06:13:00,60.4,54.6,29.94,WSW,248,0.0,0.0,81,0.00,,,0.00,VWS V14.01,2013-08-18 13:13:00,
2013-08-18 06:15:00,60.4,54.6,29.94,SE,135,0.0,0.0,81,0.00,,,0.00,VWS V14.01,2013-08-18 13:15:00,
2013-08-18 06:16:00,60.4,54.6,29.97,ENE,68,0.0,0.0,81,0.00,,,0.00,VWS V14.01,2013-08-18 13:16:00,
2013-08-18 06:18:00,60.4,54.6,29.97,ENE,68,0.0,0.0,81,0.00,,,0.00,VWS V14.01,2013-08-18 13:18:00,
2013-08-18 06:19:00,60.4,54.6,29.97,ENE,68,0.0,0.0,81,0.00,,,0.00,VWS V14.01,2013-08-18 13:19:00,
2013-08-18 06:20:00,60.6,54.8,29.97,ENE,68,0.0,0.0,81,0.00,,,0.00,VWS V14.01,2013-08-18 13:20:00,
2013-08-18 06:21:00,60.6,54.8,29.97,ENE,68,0.0,0.0,81,0.00,,,0.00,VWS V14.01,2013-08-18 13:21:00,
2013-08-18 06:23:00,60.6,54.8,29.97,ENE,68,0.0,0.0,81,0.00,,,0.00,VWS V14.01,2013-08-18 13:23:00,
2013-08-18 06:25:00,60.6,54.8,29.97,East,90,0.0,0.0,81,0.00,,,0.00,VWS V14.01,2013-08-18 13:25:00,
2013-08-18 06:26:00,60.6,54.8,29.97,East,90,0.0,0.0,81,0.00,,,0.00,VWS V14.01,2013-08-18 13:26:00,
2013-08-18 06:28:00,60.6,54.8,29.97,ENE,68,0.0,0.0,81,0.00,,,0.00,VWS V14.01,2013-08-18 13:28:00,
2013-08-18 06:29:00,60.6,54.8,29.97,ENE,68,0.0,0.0,81,0.00,,,0.00,VWS V14.01,2013-08-18 13:29:00,
2013-08-18 06:30:00,60.6,54.8,29.97,ENE,68,0.0,0.0,81,0.00,,,0.00,VWS V14.01,2013-08-18 13:30:00,
2013-08-18 06:32:00,60.6,54.8,29.97,East,90,0.0,0.0,81,0.00,,,0.00,VWS V14.01,2013-08-18 13:32:00,
2013-08-18 06:33:00,60.8,54.9,29.97,East,90,0.0,0.0,81,0.00,,,0.00,VWS V14.01,2013-08-18 13:33:00,
2013-08-18 06:34:00,60.8,54.9,29.97,East,90,0.0,0.0,81,0.00,,,0.00,VWS V14.01,2013-08-18 13:34:00,
2013-08-18 06:35:00,60.8,54.9,29.97,SSW,202,0.0,0.0,81,0.00,,,0.00,VWS V14.01,2013-08-18 13:35:00,
2013-08-18 06:37:00,60.6,54.8,29.97,West,270,0.0,0.0,81,0.00,,,0.00,VWS V14.01,2013-08-18 13:37:00,
2013-08-18 06:38:00,60.6,54.8,29.97,SSW,202,0.0,0.0,81,0.00,,,0.00,VWS V14.01,2013-08-18 13:38:00,
2013-08-18 06:39:00,60.6,54.8,29.97,SSW,202,0.0,0.0,81,0.00,,,0.00,VWS V14.01,2013-08-18 13:39:00,
2013-08-18 06:40:00,60.6,54.8,29.97,East,90,0.0,0.0,81,0.00,,,0.00,VWS V14.01,2013-08-18 13:40:00,
2013-08-18 06:42:00,60.6,54.8,29.97,East,90,0.0,0.0,81,0.00,,,0.00,VWS V14.01,2013-08-18 13:42:00,
2013-08-18 06:43:00,60.6,54.8,29.97,NNE,22,0.0,0.0,81,0.00,,,0.00,VWS V14.01,2013-08-18 13:43:00,
2013-08-18 06:44:00,60.6,54.8,29.97,WSW,248,0.0,0.0,81,0.00,,,0.00,VWS V14.01,2013-08-18 13:44:00,
2013-08-18 06:45:00,60.6,54.8,29.97,East,90,0.0,0.0,81,0.00,,,0.00,VWS V14.01,2013-08-18 13:45:00,
2013-08-18 06:47:00,60.6,54.8,29.97,East,90,0.0,0.0,81,0.00,,,0.00,VWS V14.01,2013-08-18 13:47:00,
2013-08-18 06:48:00,60.8,54.9,29.97,East,90,0.0,0.0,81,0.00,,,0.00,VWS V14.01,2013-08-18 13:48:00,
2013-08-18 06:49:00,60.8,54.9,29.97,East,90,0.0,0.0,81,0.00,,,0.00,VWS V14.01,2013-08-18 13:49:00,
2013-08-18 06:50:00,60.8,54.9,29.97,East,90,0.0,0.0,81,0.00,,,0.00,VWS V14.01,2013-08-18 13:50:00,
2013-08-18 06:52:00,60.8,54.9,29.97,East,90,0.0,0.0,81,0.00,,,0.00,VWS V14.01,2013-08-18 13:52:00,
2013-08-18 06:53:00,61.0,55.1,29.97,East,90,0.0,0.0,81,0.00,,,0.00,VWS V14.01,2013-08-18 13:53:00,
2013-08-18 06:54:00,61.0,55.1,29.97,East,90,0.0,0.0,81,0.00,,,0.00,VWS V14.01,2013-08-18 13:54:00,
2013-08-18 06:55:00,61.0,55.1,29.97,East,90,0.0,0.0,81,0.00,,,0.00,VWS V14.01,2013-08-18 13:55:00,
2013-08-18 06:57:00,61.0,55.1,29.97,East,90,0.0,0.0,81,0.00,,,0.00,VWS V14.01,2013-08-18 13:57:00,
2013-08-18 06:58:00,61.0,55.1,29.97,West,270,0.0,0.0,81,0.00,,,0.00,VWS V14.01,2013-08-18 13:58:00,
2013-08-18 06:59:00,61.0,55.1,29.97,WNW,292,0.0,0.0,81,0.00,,,0.00,VWS V14.01,2013-08-18 13:59:00,
2013-08-18 07:00:00,60.8,54.9,29.97,SE,135,0.0,0.0,81,0.00,,,0.00,VWS V14.01,2013-08-18 14:00:00,
2013-08-18 07:02:00,60.8,54.9,29.97,ESE,112,0.0,0.0,81,0.00,,,0.00,VWS V14.01,2013-08-18 14:02:00,
2013-08-18 07:03:00,60.8,54.9,29.97,ESE,112,0.0,0.0,81,0.00,,,0.00,VWS V14.01,2013-08-18 14:03:00,
2013-08-18 07:04:00,60.8,54.9,29.97,ESE,112,0.0,0.0,81,0.00,,,0.00,VWS V14.01,2013-08-18 14:04:00,
2013-08-18 07:05:00,60.8,54.9,29.97,NNW,338,0.0,0.0,81,0.00,,,0.00,VWS V14.01,2013-08-18 14:05:00,
2013-08-18 07:07:00,60.8,54.9,29.97,NNW,338,0.0,0.0,81,0.00,,,0.00,VWS V14.01,2013-08-18 14:07:00,
2013-08-18 07:08:00,60.8,54.9,29.97,NNW,338,0.0,0.0,81,0.00,,,0.00,VWS V14.01,2013-08-18 14:08:00,
2013-08-18 07:09:00,61.0,55.1,29.97,NNW,338,0.0,0.0,81,0.00,,,0.00,VWS V14.01,2013-08-18 14:09:00,
2013-08-18 07:11:00,61.0,55.1,29.97,NNW,338,0.0,0.0,81,0.00,,,0.00,VWS V14.01,2013-08-18 14:11:00,
2013-08-18 07:12:00,61.0,55.1,29.97,NNW,338,0.0,0.0,81,0.00,,,0.00,VWS V14.01,2013-08-18 14:12:00,
2013-08-18 07:13:00,61.0,55.1,29.97,NNW,338,0.0,0.0,81,0.00,,,0.00,VWS V14.01,2013-08-18 14:13:00,
2013-08-18 07:14:00,61.0,55.1,29.97,NW,315,0.0,0.0,81,0.00,,,0.00,VWS V14.01,2013-08-18 14:14:00,
2013-08-18 07:16:00,61.0,55.1,29.97,WNW,292,0.0,0.0,81,0.00,,,0.00,VWS V14.01,2013-08-18 14:16:00,
2013-08-18 07:17:00,61.0,55.1,29.97,WNW,292,0.0,0.0,81,0.00,,,0.00,VWS V14.01,2013-08-18 14:17:00,
2013-08-18 07:18:00,61.0,55.1,29.97,WNW,292,0.0,0.0,81,0.00,,,0.00,VWS V14.01,2013-08-18 14:18:00,
2013-08-18 07:19:00,61.0,55.1,29.97,WNW,292,0.0,0.0,81,0.00,,,0.00,VWS V14.01,2013-08-18 14:19:00,
2013-08-18 07:21:00,61.0,55.1,29.97,WNW,292,0.0,0.0,81,0.00,,,0.00,VWS V14.01,2013-08-18 14:21:00,
2013-08-18 07:22:00,61.0,55.1,29.97,WNW,292,0.0,0.0,81,0.00,,,0.00,VWS V14.01,2013-08-18 14:22:00,
2013-08-18 07:23:00,61.0,55.1,29.97,WNW,292,0.0,0.0,81,0.00,,,0.00,VWS V14.01,2013-08-18 14:23:00,
2013-08-18 07:24:00,61.0,55.1,29.97,SW,225,0.0,0.0,81,0.00,,,0.00,VWS V14.01,2013-08-18 14:24:00,
2013-08-18 07:26:00,61.0,55.1,29.97,West,270,0.0,0.0,81,0.00,,,0.00,VWS V14.01,2013-08-18 14:26:00,
2013-08-18 07:27:00,61.0,55.1,29.97,West,270,0.0,0.0,81,0.00,,,0.00,VWS V14.01,2013-08-18 14:27:00,
2013-08-18 07:29:00,61.2,55.3,29.97,WSW,248,0.0,0.9,81,0.00,,,0.00,VWS V14.01,2013-08-18 14:29:00,
2013-08-18 07:31:00,61.2,55.3,29.97,South,180,0.0,0.9,81,0.00,,,0.00,VWS V14.01,2013-08-18 14:31:00,
2013-08-18 07:32:00,61.2,55.3,29.97,East,90,0.0,0.9,81,0.00,,,0.00,VWS V14.01,2013-08-18 14:32:00,
2013-08-18 07:34:00,61.2,55.3,29.97,WSW,248,0.0,0.9,81,0.00,,,0.00,VWS V14.01,2013-08-18 14:34:00,
2013-08-18 07:36:00,61.2,55.3,29.97,West,270,0.0,0.9,81,0.00,,,0.00,VWS V14.01,2013-08-18 14:36:00,
2013-08-18 07:37:00,61.2,55.3,29.97,WNW,292,0.0,0.9,81,0.00,,,0.00,VWS V14.01,2013-08-18 14:37:00,
2013-08-18 07:39:00,61.2,55.3,29.97,WNW,292,0.0,0.9,81,0.00,,,0.00,VWS V14.01,2013-08-18 14:39:00,
2013-08-18 07:41:00,61.3,55.5,29.97,West,270,0.0,0.9,81,0.00,,,0.00,VWS V14.01,2013-08-18 14:41:00,
2013-08-18 07:42:00,61.3,55.5,29.97,West,270,0.0,0.9,81,0.00,,,0.00,VWS V14.01,2013-08-18 14:42:00,
2013-08-18 07:44:00,61.3,55.5,29.97,WNW,292,0.0,0.0,81,0.00,,,0.00,VWS V14.01,2013-08-18 14:44:00,
2013-08-18 07:46:00,61.3,55.5,29.97,WNW,292,0.0,0.0,81,0.00,,,0.00,VWS V14.01,2013-08-18 14:46:00,
2013-08-18 07:47:00,61.5,55.6,29.97,WNW,292,0.0,0.0,81,0.00,,,0.00,VWS V14.01,2013-08-18 14:47:00,
2013-08-18 07:49:00,61.5,55.6,29.97,NW,315,0.0,0.0,81,0.00,,,0.00,VWS V14.01,2013-08-18 14:49:00,
2013-08-18 07:51:00,61.7,55.5,29.97,West,270,0.0,0.0,80,0.00,,,0.00,VWS V14.01,2013-08-18 14:51:00,
2013-08-18 07:52:00,61.7,55.5,29.97,West,270,0.0,0.0,80,0.00,,,0.00,VWS V14.01,2013-08-18 14:52:00,
2013-08-18 07:54:00,61.7,55.5,29.97,WNW,292,0.0,0.0,80,0.00,,,0.00,VWS V14.01,2013-08-18 14:54:00,
2013-08-18 07:56:00,61.7,55.8,29.97,East,90,0.0,0.0,81,0.00,,,0.00,VWS V14.01,2013-08-18 14:56:00,
2013-08-18 07:57:00,61.7,55.8,29.97,East,90,0.0,0.0,81,0.00,,,0.00,VWS V14.01,2013-08-18 14:57:00,
2013-08-18 07:59:00,61.9,55.7,29.97,SSE,158,0.0,0.0,80,0.00,,,0.00,VWS V14.01,2013-08-18 14:59:00,
2013-08-18 08:00:00,61.7,55.5,29.97,WNW,292,2.2,2.2,80,0.00,,,0.00,VWS V14.01,2013-08-18 15:00:00,
2013-08-18 08:01:00,61.9,55.7,29.97,West,270,0.0,2.2,80,0.00,,,0.00,VWS V14.01,2013-08-18 15:01:00,
2013-08-18 08:02:00,61.9,55.7,29.97,WNW,292,0.0,2.2,80,0.00,,,0.00,VWS V14.01,2013-08-18 15:02:00,
2013-08-18 08:04:00,61.9,55.7,29.97,WNW,292,0.0,2.2,80,0.00,,,0.00,VWS V14.01,2013-08-18 15:04:00,
2013-08-18 08:05:00,61.9,55.7,29.97,WNW,292,0.0,2.2,80,0.00,,,0.00,VWS V14.01,2013-08-18 15:05:00,
2013-08-18 08:06:00,61.9,55.7,29.97,WNW,292,0.0,2.2,80,0.00,,,0.00,VWS V14.01,2013-08-18 15:06:00,
2013-08-18 08:07:00,61.9,55.7,29.97,WNW,292,0.0,2.2,80,0.00,,,0.00,VWS V14.01,2013-08-18 15:07:00,
2013-08-18 08:09:00,61.9,55.7,29.97,WNW,292,0.0,2.2,80,0.00,,,0.00,VWS V14.01,2013-08-18 15:09:00,
2013-08-18 08:10:00,61.9,55.7,29.97,WNW,292,0.0,2.2,80,0.00,,,0.00,VWS V14.01,2013-08-18 15:10:00,
2013-08-18 08:11:00,61.9,55.7,29.97,ENE,68,0.0,2.2,80,0.00,,,0.00,VWS V14.01,2013-08-18 15:11:00,
2013-08-18 08:12:00,61.9,55.7,29.97,ENE,68,0.0,2.2,80,0.00,,,0.00,VWS V14.01,2013-08-18 15:12:00,
2013-08-18 08:14:00,62.1,55.8,29.97,NE,45,0.0,2.2,80,0.00,,,0.00,VWS V14.01,2013-08-18 15:14:00,
2013-08-18 08:15:00,62.1,55.8,29.97,NE,45,0.0,2.2,80,0.00,,,0.00,VWS V14.01,2013-08-18 15:15:00,
2013-08-18 08:16:00,62.2,56.0,29.97,NE,45,0.0,2.2,80,0.00,,,0.00,VWS V14.01,2013-08-18 15:16:00,
2013-08-18 08:17:00,62.2,56.0,29.97,NE,45,0.0,0.0,80,0.00,,,0.00,VWS V14.01,2013-08-18 15:17:00,
2013-08-18 08:19:00,62.2,56.0,29.97,West,270,0.0,0.0,80,0.00,,,0.00,VWS V14.01,2013-08-18 15:19:00,
2013-08-18 08:20:00,62.2,56.0,29.97,West,270,0.0,0.0,80,0.00,,,0.00,VWS V14.01,2013-08-18 15:20:00,
2013-08-18 08:21:00,62.2,56.0,29.97,WNW,292,0.0,0.0,80,0.00,,,0.00,VWS V14.01,2013-08-18 15:21:00,
2013-08-18 08:23:00,62.4,56.2,29.97,NW,315,0.0,0.0,80,0.00,,,0.00,VWS V14.01,2013-08-18 15:23:00,
2013-08-18 08:24:00,62.6,56.0,29.97,NW,315,0.0,0.0,79,0.00,,,0.00,VWS V14.01,2013-08-18 15:24:00,
2013-08-18 08:25:00,62.6,56.0,29.97,NW,315,0.0,0.0,79,0.00,,,0.00,VWS V14.01,2013-08-18 15:25:00,
2013-08-18 08:26:00,62.6,56.0,29.97,WSW,248,0.0,0.0,79,0.00,,,0.00,VWS V14.01,2013-08-18 15:26:00,
2013-08-18 08:28:00,62.6,56.0,29.97,SW,225,0.0,0.0,79,0.00,,,0.00,VWS V14.01,2013-08-18 15:28:00,
2013-08-18 08:29:00,62.6,56.0,29.97,WSW,248,0.0,0.0,79,0.00,,,0.00,VWS V14.01,2013-08-18 15:29:00,
2013-08-18 08:30:00,62.6,56.0,29.97,WSW,248,0.0,0.0,79,0.00,,,0.00,VWS V14.01,2013-08-18 15:30:00,
2013-08-18 08:31:00,62.8,56.2,30.00,West,270,0.0,0.0,79,0.00,,,0.00,VWS V14.01,2013-08-18 15:31:00,
2013-08-18 08:33:00,62.8,56.2,30.00,West,270,0.0,0.0,79,0.00,,,0.00,VWS V14.01,2013-08-18 15:33:00,
2013-08-18 08:34:00,62.8,56.2,30.00,SSW,202,0.0,0.0,79,0.00,,,0.00,VWS V14.01,2013-08-18 15:34:00,
2013-08-18 08:35:00,62.8,56.2,30.00,SSW,202,0.0,0.0,79,0.00,,,0.00,VWS V14.01,2013-08-18 15:35:00,
2013-08-18 08:36:00,62.8,56.2,30.00,SSW,202,0.0,0.0,79,0.00,,,0.00,VWS V14.01,2013-08-18 15:36:00,
2013-08-18 08:38:00,62.8,56.2,30.00,West,270,0.0,0.0,79,0.00,,,0.00,VWS V14.01,2013-08-18 15:38:00,
2013-08-18 08:39:00,63.0,56.0,30.00,WSW,248,0.0,0.0,78,0.00,,,0.00,VWS V14.01,2013-08-18 15:39:00,
2013-08-18 08:40:00,63.0,56.0,30.00,WSW,248,0.0,0.0,78,0.00,,,0.00,VWS V14.01,2013-08-18 15:40:00,
2013-08-18 08:41:00,63.0,56.0,30.00,WSW,248,0.0,0.0,78,0.00,,,0.00,VWS V14.01,2013-08-18 15:41:00,
2013-08-18 08:43:00,63.1,56.2,30.00,WSW,248,0.0,0.0,78,0.00,,,0.00,VWS V14.01,2013-08-18 15:43:00,
2013-08-18 08:45:00,63.3,56.3,30.00,WNW,292,0.0,0.0,78,0.00,,,0.00,VWS V14.01,2013-08-18 15:45:00,
2013-08-18 08:46:00,63.5,56.5,30.00,SE,135,0.0,0.0,78,0.00,,,0.00,VWS V14.01,2013-08-18 15:46:00,
2013-08-18 08:48:00,63.5,56.5,30.00,ENE,68,0.0,0.0,78,0.00,,,0.00,VWS V14.01,2013-08-18 15:48:00,
2013-08-18 08:50:00,63.5,56.5,30.00,NE,45,0.0,0.0,78,0.00,,,0.00,VWS V14.01,2013-08-18 15:50:00,
2013-08-18 08:51:00,63.9,56.9,30.00,NE,45,0.0,0.0,78,0.00,,,0.00,VWS V14.01,2013-08-18 15:51:00,
2013-08-18 08:53:00,64.0,57.0,30.00,ENE,68,0.0,0.0,78,0.00,,,0.00,VWS V14.01,2013-08-18 15:53:00,
2013-08-18 08:55:00,64.0,57.0,30.00,WSW,248,0.0,0.0,78,0.00,,,0.00,VWS V14.01,2013-08-18 15:55:00,
2013-08-18 08:56:00,63.9,56.9,30.00,WSW,248,0.0,0.0,78,0.00,,,0.00,VWS V14.01,2013-08-18 15:56:00,
2013-08-18 08:58:00,63.9,56.9,30.00,WSW,248,0.0,0.0,78,0.00,,,0.00,VWS V14.01,2013-08-18 15:58:00,
2013-08-18 09:00:00,63.9,56.9,30.00,North,0,0.0,0.0,78,0.00,,,0.00,VWS V14.01,2013-08-18 16:00:00,
2013-08-18 09:01:00,63.7,56.7,30.00,North,0,0.0,0.0,78,0.00,,,0.00,VWS V14.01,2013-08-18 16:01:00,
2013-08-18 09:02:00,63.7,56.7,30.00,North,0,0.0,0.0,78,0.00,,,0.00,VWS V14.01,2013-08-18 16:02:00,
2013-08-18 09:03:00,63.7,56.3,30.00,North,0,0.0,0.0,77,0.00,,,0.00,VWS V14.01,2013-08-18 16:03:00,
2013-08-18 09:05:00,63.7,56.3,30.00,ENE,68,0.0,0.0,77,0.00,,,0.00,VWS V14.01,2013-08-18 16:05:00,
2013-08-18 09:06:00,63.7,56.7,30.00,North,0,0.0,0.0,78,0.00,,,0.00,VWS V14.01,2013-08-18 16:06:00,
2013-08-18 09:07:00,63.7,56.7,30.00,North,0,0.0,0.0,78,0.00,,,0.00,VWS V14.01,2013-08-18 16:07:00,
2013-08-18 09:08:00,63.7,56.7,30.00,East,90,0.0,0.0,78,0.00,,,0.00,VWS V14.01,2013-08-18 16:08:00,
2013-08-18 09:10:00,63.9,56.9,29.97,East,90,0.0,0.0,78,0.00,,,0.00,VWS V14.01,2013-08-18 16:10:00,
2013-08-18 09:11:00,64.2,57.2,29.97,East,90,0.0,0.0,78,0.00,,,0.00,VWS V14.01,2013-08-18 16:11:00,
2013-08-18 09:12:00,64.2,57.2,29.97,East,90,0.0,0.0,78,0.00,,,0.00,VWS V14.01,2013-08-18 16:12:00,
2013-08-18 09:13:00,64.6,57.2,29.97,ENE,68,0.0,0.0,77,0.00,,,0.00,VWS V14.01,2013-08-18 16:13:00,
2013-08-18 09:15:00,65.3,57.9,29.97,ENE,68,0.0,0.0,77,0.00,,,0.00,VWS V14.01,2013-08-18 16:15:00,
2013-08-18 09:16:00,65.3,57.9,29.97,ENE,68,2.7,2.7,77,0.00,,,0.00,VWS V14.01,2013-08-18 16:16:00,
2013-08-18 09:17:00,65.3,57.9,29.97,ENE,68,2.7,2.7,77,0.00,,,0.00,VWS V14.01,2013-08-18 16:17:00,
2013-08-18 09:18:00,66.0,57.9,29.97,NNW,338,0.0,2.7,75,0.00,,,0.00,VWS V14.01,2013-08-18 16:18:00,
2013-08-18 09:20:00,66.4,58.2,29.97,East,90,0.0,2.7,75,0.00,,,0.00,VWS V14.01,2013-08-18 16:20:00,
2013-08-18 09:21:00,66.4,58.2,29.97,NNW,338,0.0,2.7,75,0.00,,,0.00,VWS V14.01,2013-08-18 16:21:00,
2013-08-18 09:22:00,66.4,58.2,29.97,NNW,338,0.0,2.7,75,0.00,,,0.00,VWS V14.01,2013-08-18 16:22:00,
2013-08-18 09:23:00,66.9,58.4,29.97,NNE,22,0.0,2.7,74,0.00,,,0.00,VWS V14.01,2013-08-18 16:23:00,
2013-08-18 09:25:00,67.1,58.2,29.97,WNW,292,0.0,2.7,73,0.00,,,0.00,VWS V14.01,2013-08-18 16:25:00,
2013-08-18 09:26:00,67.1,58.2,29.97,WNW,292,0.0,2.7,73,0.00,,,0.00,VWS V14.01,2013-08-18 16:26:00,
2013-08-18 09:27:00,67.3,58.3,29.97,WNW,292,0.0,2.7,73,0.00,,,0.00,VWS V14.01,2013-08-18 16:27:00,
2013-08-18 09:28:00,67.3,58.3,29.97,NNE,22,0.0,2.7,73,0.00,,,0.00,VWS V14.01,2013-08-18 16:28:00,
2013-08-18 09:30:00,67.3,58.3,29.97,ENE,68,2.7,2.7,73,0.00,,,0.00,VWS V14.01,2013-08-18 16:30:00,
2013-08-18 09:31:00,67.3,58.3,30.00,NE,45,0.0,2.7,73,0.00,,,0.00,VWS V14.01,2013-08-18 16:31:00,
2013-08-18 09:32:00,67.3,58.3,30.00,WSW,248,0.0,2.7,73,0.00,,,0.00,VWS V14.01,2013-08-18 16:32:00,
2013-08-18 09:33:00,67.5,58.1,30.00,WNW,292,0.0,2.7,72,0.00,,,0.00,VWS V14.01,2013-08-18 16:33:00,
2013-08-18 09:35:00,67.6,58.3,30.00,ENE,68,0.0,2.7,72,0.00,,,0.00,VWS V14.01,2013-08-18 16:35:00,
2013-08-18 09:36:00,67.6,58.3,30.00,ENE,68,0.0,2.7,72,0.00,,,0.00,VWS V14.01,2013-08-18 16:36:00,
2013-08-18 09:37:00,67.5,58.1,30.00,ENE,68,2.5,2.7,72,0.00,,,0.00,VWS V14.01,2013-08-18 16:37:00,
2013-08-18 09:38:00,67.5,58.1,30.00,ENE,68,0.0,2.7,72,0.00,,,0.00,VWS V14.01,2013-08-18 16:38:00,
2013-08-18 09:40:00,67.6,57.9,30.00,NW,315,0.0,2.7,71,0.00,,,0.00,VWS V14.01,2013-08-18 16:40:00,
2013-08-18 09:41:00,67.6,57.9,30.00,NW,315,0.0,2.7,71,0.00,,,0.00,VWS V14.01,2013-08-18 16:41:00,
2013-08-18 09:42:00,68.2,58.4,30.00,NW,315,0.0,2.7,71,0.00,,,0.00,VWS V14.01,2013-08-18 16:42:00,
2013-08-18 09:43:00,68.2,58.4,30.00,East,90,0.0,2.7,71,0.00,,,0.00,VWS V14.01,2013-08-18 16:43:00,
2013-08-18 09:46:00,68.4,58.6,29.97,ENE,68,0.0,2.7,71,0.00,,,0.00,VWS V14.01,2013-08-18 16:46:00,
2013-08-18 09:47:00,68.4,58.6,29.97,WNW,292,1.6,2.7,71,0.00,,,0.00,VWS V14.01,2013-08-18 16:47:00,
2013-08-18 09:48:00,68.2,58.0,29.97,East,90,0.0,3.1,70,0.00,,,0.00,VWS V14.01,2013-08-18 16:48:00,
2013-08-18 09:51:00,68.2,58.0,29.97,East,90,0.0,3.6,70,0.00,,,0.00,VWS V14.01,2013-08-18 16:51:00,
2013-08-18 09:52:00,68.2,58.0,29.97,ENE,68,0.0,3.6,70,0.00,,,0.00,VWS V14.01,2013-08-18 16:52:00,
2013-08-18 09:54:00,68.4,58.2,29.97,ENE,68,2.5,3.8,70,0.00,,,0.00,VWS V14.01,2013-08-18 16:54:00,
2013-08-18 09:56:00,68.4,58.2,29.97,ENE,68,2.7,3.8,70,0.00,,,0.00,VWS V14.01,2013-08-18 16:56:00,
2013-08-18 09:57:00,68.4,58.2,29.97,East,90,0.9,3.8,70,0.00,,,0.00,VWS V14.01,2013-08-18 16:57:00,
2013-08-18 09:59:00,68.4,58.2,29.97,ENE,68,1.1,3.8,70,0.00,,,0.00,VWS V14.01,2013-08-18 16:59:00,
2013-08-18 10:01:00,68.7,58.5,29.97,NNW,338,1.6,3.8,70,0.00,,,0.00,VWS V14.01,2013-08-18 17:01:00,
2013-08-18 10:02:00,68.7,58.2,29.97,NE,45,2.9,3.8,69,0.00,,,0.00,VWS V14.01,2013-08-18 17:02:00,
2013-08-18 10:04:00,68.4,57.8,29.97,WNW,292,1.6,3.8,69,0.00,,,0.00,VWS V14.01,2013-08-18 17:04:00,
2013-08-18 10:06:00,68.2,57.6,29.97,ENE,68,0.0,4.0,69,0.00,,,0.00,VWS V14.01,2013-08-18 17:06:00,
2013-08-18 10:07:00,68.4,57.8,29.97,NW,315,0.0,4.0,69,0.00,,,0.00,VWS V14.01,2013-08-18 17:07:00,
2013-08-18 10:09:00,68.5,58.0,29.97,SE,135,0.0,4.0,69,0.00,,,0.00,VWS V14.01,2013-08-18 17:09:00,
2013-08-18 10:11:00,68.7,58.2,29.97,WNW,292,0.0,4.0,69,0.00,,,0.00,VWS V14.01,2013-08-18 17:11:00,
2013-08-18 10:12:00,69.1,58.5,29.97,NNE,22,0.0,4.0,69,0.00,,,0.00,VWS V14.01,2013-08-18 17:12:00,
2013-08-18 10:14:00,69.4,58.8,29.97,NE,45,0.0,4.0,69,0.00,,,0.00,VWS V14.01,2013-08-18 17:14:00,
2013-08-18 10:16:00,69.4,58.8,29.97,ENE,68,1.1,4.0,69,0.00,,,0.00,VWS V14.01,2013-08-18 17:16:00,
2013-08-18 10:17:00,69.3,58.7,29.97,WNW,292,1.3,4.0,69,0.00,,,0.00,VWS V14.01,2013-08-18 17:17:00,
2013-08-18 10:18:00,69.3,58.7,29.97,WNW,292,1.3,4.0,69,0.00,,,0.00,VWS V14.01,2013-08-18 17:18:00,
2013-08-18 10:19:00,69.3,58.7,29.97,NE,45,0.9,4.0,69,0.00,,,0.00,VWS V14.01,2013-08-18 17:19:00,
2013-08-18 10:21:00,69.3,58.7,29.97,NNW,338,0.0,4.0,69,0.00,,,0.00,VWS V14.01,2013-08-18 17:21:00,
2013-08-18 10:22:00,69.3,58.7,29.97,NW,315,0.0,2.7,69,0.00,,,0.00,VWS V14.01,2013-08-18 17:22:00,
2013-08-18 10:23:00,69.3,58.3,29.97,ENE,68,0.0,1.3,68,0.00,,,0.00,VWS V14.01,2013-08-18 17:23:00,
2013-08-18 10:24:00,69.3,58.3,29.97,NNW,338,0.0,1.3,68,0.00,,,0.00,VWS V14.01,2013-08-18 17:24:00,
2013-08-18 10:26:00,69.3,58.3,29.97,NNW,338,0.0,1.3,68,0.00,,,0.00,VWS V14.01,2013-08-18 17:26:00,
2013-08-18 10:27:00,69.3,58.3,29.97,ENE,68,0.0,1.3,68,0.00,,,0.00,VWS V14.01,2013-08-18 17:27:00,
2013-08-18 10:28:00,69.3,58.7,29.97,East,90,2.5,2.5,69,0.00,,,0.00,VWS V14.01,2013-08-18 17:28:00,
2013-08-18 10:29:00,69.3,58.7,29.97,East,90,2.5,2.5,69,0.00,,,0.00,VWS V14.01,2013-08-18 17:29:00,
2013-08-18 10:31:00,69.4,58.8,29.97,East,90,2.5,2.5,69,0.00,,,0.00,VWS V14.01,2013-08-18 17:31:00,
2013-08-18 10:32:00,69.3,58.3,29.97,ENE,68,0.0,2.5,68,0.00,,,0.00,VWS V14.01,2013-08-18 17:32:00,
2013-08-18 10:33:00,69.3,58.3,29.97,East,90,0.0,2.5,68,0.00,,,0.00,VWS V14.01,2013-08-18 17:33:00,
2013-08-18 10:34:00,69.3,58.3,29.97,East,90,0.0,2.5,68,0.00,,,0.00,VWS V14.01,2013-08-18 17:34:00,
2013-08-18 10:36:00,69.1,58.1,29.97,NNE,22,0.0,2.5,68,0.00,,,0.00,VWS V14.01,2013-08-18 17:36:00,
2013-08-18 10:37:00,69.3,58.3,29.97,ENE,68,2.7,2.7,68,0.00,,,0.00,VWS V14.01,2013-08-18 17:37:00,
2013-08-18 10:38:00,69.1,58.1,29.97,ENE,68,1.6,2.7,68,0.00,,,0.00,VWS V14.01,2013-08-18 17:38:00,
2013-08-18 10:39:00,69.1,58.1,29.97,NE,45,0.0,2.7,68,0.00,,,0.00,VWS V14.01,2013-08-18 17:39:00,
2013-08-18 10:41:00,68.9,57.9,29.97,NNW,338,0.0,2.7,68,0.00,,,0.00,VWS V14.01,2013-08-18 17:41:00,
2013-08-18 10:42:00,68.9,57.9,29.97,East,90,0.0,2.7,68,0.00,,,0.00,VWS V14.01,2013-08-18 17:42:00,
2013-08-18 10:43:00,68.9,57.9,29.97,East,90,0.0,2.7,68,0.00,,,0.00,VWS V14.01,2013-08-18 17:43:00,
2013-08-18 10:44:00,68.9,57.9,29.97,ESE,112,0.0,2.7,68,0.00,,,0.00,VWS V14.01,2013-08-18 17:44:00,
2013-08-18 10:46:00,69.1,58.1,29.97,NNE,22,1.1,2.7,68,0.00,,,0.00,VWS V14.01,2013-08-18 17:46:00,
2013-08-18 10:47:00,69.1,58.1,29.97,NNE,22,1.1,2.7,68,0.00,,,0.00,VWS V14.01,2013-08-18 17:47:00,
2013-08-18 10:48:00,68.9,57.9,29.97,WSW,248,0.9,2.7,68,0.00,,,0.00,VWS V14.01,2013-08-18 17:48:00,
2013-08-18 10:50:00,69.1,58.1,29.97,NE,45,0.0,2.7,68,0.00,,,0.00,VWS V14.01,2013-08-18 17:50:00,
2013-08-18 10:51:00,69.3,58.3,29.97,NE,45,0.0,2.7,68,0.00,,,0.00,VWS V14.01,2013-08-18 17:51:00,
2013-08-18 10:52:00,69.3,58.3,29.97,NE,45,0.0,2.7,68,0.00,,,0.00,VWS V14.01,2013-08-18 17:52:00,
2013-08-18 10:54:00,69.1,57.7,29.97,NE,45,2.0,2.5,67,0.00,,,0.00,VWS V14.01,2013-08-18 17:54:00,
2013-08-18 10:55:00,68.9,57.5,29.97,NE,45,0.0,2.5,67,0.00,,,0.00,VWS V14.01,2013-08-18 17:55:00,
2013-08-18 10:56:00,68.9,57.5,29.97,NW,315,0.0,2.5,67,0.00,,,0.00,VWS V14.01,2013-08-18 17:56:00,
2013-08-18 10:57:00,68.9,57.5,29.97,ENE,68,0.0,2.5,67,0.00,,,0.00,VWS V14.01,2013-08-18 17:57:00,
2013-08-18 10:59:00,69.1,57.7,29.97,NNW,338,0.0,2.5,67,0.00,,,0.00,VWS V14.01,2013-08-18 17:59:00,
2013-08-18 11:00:00,69.4,58.4,29.97,NNE,22,0.0,2.5,68,0.00,,,0.00,VWS V14.01,2013-08-18 18:00:00,
2013-08-18 11:01:00,69.4,58.4,29.97,ENE,68,0.0,2.5,68,0.00,,,0.00,VWS V14.01,2013-08-18 18:01:00,
2013-08-18 11:02:00,69.3,57.8,29.97,ENE,68,0.0,2.5,67,0.00,,,0.00,VWS V14.01,2013-08-18 18:02:00,
2013-08-18 11:04:00,69.3,57.8,29.97,WSW,248,0.0,2.5,67,0.00,,,0.00,VWS V14.01,2013-08-18 18:04:00,
2013-08-18 11:05:00,69.3,57.8,29.97,WSW,248,0.0,2.5,67,0.00,,,0.00,VWS V14.01,2013-08-18 18:05:00,
2013-08-18 11:06:00,69.3,57.8,29.97,ENE,68,0.0,2.5,67,0.00,,,0.00,VWS V14.01,2013-08-18 18:06:00,
2013-08-18 11:07:00,69.4,58.4,29.97,North,0,0.0,2.5,68,0.00,,,0.00,VWS V14.01,2013-08-18 18:07:00,
2013-08-18 11:09:00,69.4,58.0,29.97,NNE,22,0.0,2.5,67,0.00,,,0.00,VWS V14.01,2013-08-18 18:09:00,
2013-08-18 11:10:00,69.4,58.0,29.97,ESE,112,0.0,2.5,67,0.00,,,0.00,VWS V14.01,2013-08-18 18:10:00,
2013-08-18 11:11:00,69.6,58.2,29.97,North,0,0.0,2.5,67,0.00,,,0.00,VWS V14.01,2013-08-18 18:11:00,
2013-08-18 11:12:00,69.6,58.2,29.97,ENE,68,0.0,2.5,67,0.00,,,0.00,VWS V14.01,2013-08-18 18:12:00,
2013-08-18 11:14:00,69.8,57.9,29.97,NNW,338,0.0,2.5,66,0.00,,,0.00,VWS V14.01,2013-08-18 18:14:00,
2013-08-18 11:15:00,69.8,57.9,29.97,ENE,68,0.0,2.5,66,0.00,,,0.00,VWS V14.01,2013-08-18 18:15:00,
2013-08-18 11:16:00,69.8,58.4,29.97,NE,45,1.6,2.5,67,0.00,,,0.00,VWS V14.01,2013-08-18 18:16:00,
2013-08-18 11:17:00,69.8,58.4,29.97,NE,45,0.0,2.5,67,0.00,,,0.00,VWS V14.01,2013-08-18 18:17:00,
2013-08-18 11:18:00,69.8,58.4,29.97,NNE,22,0.0,2.5,67,0.00,,,0.00,VWS V14.01,2013-08-18 18:18:00,
2013-08-18 11:19:00,70.2,58.7,29.97,North,0,0.0,1.6,67,0.00,,,0.00,VWS V14.01,2013-08-18 18:19:00,
2013-08-18 11:20:00,70.2,58.7,29.97,NNE,22,0.0,1.6,67,0.00,,,0.00,VWS V14.01,2013-08-18 18:20:00,
2013-08-18 11:21:00,70.2,58.7,29.97,East,90,2.5,2.5,67,0.00,,,0.00,VWS V14.01,2013-08-18 18:21:00,
2013-08-18 11:22:00,70.2,58.7,29.97,East,90,0.0,2.5,67,0.00,,,0.00,VWS V14.01,2013-08-18 18:22:00,
2013-08-18 11:23:00,70.2,58.7,29.97,East,90,0.0,2.5,67,0.00,,,0.00,VWS V14.01,2013-08-18 18:23:00,
2013-08-18 11:24:00,70.2,58.7,29.97,East,90,3.1,3.1,67,0.00,,,0.00,VWS V14.01,2013-08-18 18:24:00,
2013-08-18 11:25:00,70.0,58.1,29.97,ENE,68,2.9,3.1,66,0.00,,,0.00,VWS V14.01,2013-08-18 18:25:00,
2013-08-18 11:26:00,70.0,58.5,29.97,ENE,68,1.6,3.1,67,0.00,,,0.00,VWS V14.01,2013-08-18 18:26:00,
2013-08-18 11:27:00,70.0,58.5,29.97,NW,315,0.9,3.1,67,0.00,,,0.00,VWS V14.01,2013-08-18 18:27:00,
2013-08-18 11:28:00,70.0,58.5,29.97,NNE,22,0.0,3.1,67,0.00,,,0.00,VWS V14.01,2013-08-18 18:28:00,
2013-08-18 11:29:00,70.3,58.9,29.97,WNW,292,0.9,3.1,67,0.00,,,0.00,VWS V14.01,2013-08-18 18:29:00,
2013-08-18 11:30:00,70.3,58.9,29.97,West,270,0.9,3.1,67,0.00,,,0.00,VWS V14.01,2013-08-18 18:30:00,
2013-08-18 11:31:00,70.2,58.3,29.97,NE,45,0.0,3.1,66,0.00,,,0.00,VWS V14.01,2013-08-18 18:31:00,
2013-08-18 11:32:00,70.2,58.3,29.97,NE,45,0.0,3.1,66,0.00,,,0.00,VWS V14.01,2013-08-18 18:32:00,
2013-08-18 11:33:00,70.2,58.3,29.97,North,0,2.5,3.1,66,0.00,,,0.00,VWS V14.01,2013-08-18 18:33:00,
2013-08-18 11:34:00,70.0,58.1,29.97,NNE,22,0.0,3.1,66,0.00,,,0.00,VWS V14.01,2013-08-18 18:34:00,
2013-08-18 11:35:00,70.2,58.7,29.97,WNW,292,0.0,3.1,67,0.00,,,0.00,VWS V14.01,2013-08-18 18:35:00,
2013-08-18 11:36:00,70.2,58.7,29.97,NNW,338,0.0,3.1,67,0.00,,,0.00,VWS V14.01,2013-08-18 18:36:00,
2013-08-18 11:37:00,70.3,58.9,29.97,NNE,22,0.0,2.5,67,0.00,,,0.00,VWS V14.01,2013-08-18 18:37:00,
2013-08-18 11:38:00,70.3,58.9,29.97,NNE,22,0.0,2.5,67,0.00,,,0.00,VWS V14.01,2013-08-18 18:38:00,
2013-08-18 11:39:00,70.7,59.2,29.97,NNW,338,0.0,2.5,67,0.00,,,0.00,VWS V14.01,2013-08-18 18:39:00,
2013-08-18 11:40:00,70.7,59.2,29.97,North,0,0.0,2.5,67,0.00,,,0.00,VWS V14.01,2013-08-18 18:40:00,
2013-08-18 11:42:00,70.9,59.0,29.97,NNW,338,0.0,2.5,66,0.00,,,0.00,VWS V14.01,2013-08-18 18:42:00,
2013-08-18 11:43:00,70.9,59.0,29.97,NNW,338,0.0,0.0,66,0.00,,,0.00,VWS V14.01,2013-08-18 18:43:00,
2013-08-18 11:44:00,71.1,59.1,29.97,NNW,338,0.0,0.0,66,0.00,,,0.00,VWS V14.01,2013-08-18 18:44:00,
2013-08-18 11:45:00,71.1,59.1,29.97,ENE,68,0.0,0.0,66,0.00,,,0.00,VWS V14.01,2013-08-18 18:45:00,
2013-08-18 11:47:00,70.9,59.0,29.97,NNE,22,0.0,0.0,66,0.00,,,0.00,VWS V14.01,2013-08-18 18:47:00,
2013-08-18 11:48:00,70.9,59.0,29.97,North,0,0.0,0.0,66,0.00,,,0.00,VWS V14.01,2013-08-18 18:48:00,
2013-08-18 11:49:00,70.9,59.0,29.97,WNW,292,0.0,2.7,66,0.00,,,0.00,VWS V14.01,2013-08-18 18:49:00,
2013-08-18 11:50:00,70.9,59.0,29.97,NE,45,0.9,2.7,66,0.00,,,0.00,VWS V14.01,2013-08-18 18:50:00,
2013-08-18 11:52:00,70.9,59.4,29.97,NNE,22,0.0,2.7,67,0.00,,,0.00,VWS V14.01,2013-08-18 18:52:00,
2013-08-18 11:53:00,70.9,59.4,29.97,West,270,2.0,2.7,67,0.00,,,0.00,VWS V14.01,2013-08-18 18:53:00,
2013-08-18 11:54:00,70.7,58.8,29.97,West,270,0.0,2.7,66,0.00,,,0.00,VWS V14.01,2013-08-18 18:54:00,
2013-08-18 11:55:00,70.9,59.4,29.97,NE,45,1.1,2.7,67,0.00,,,0.00,VWS V14.01,2013-08-18 18:55:00,
2013-08-18 11:57:00,70.9,59.0,29.97,East,90,0.0,2.7,66,0.00,,,0.00,VWS V14.01,2013-08-18 18:57:00,
2013-08-18 11:58:00,70.9,59.0,29.97,North,0,0.0,2.7,66,0.00,,,0.00,VWS V14.01,2013-08-18 18:58:00,
2013-08-18 11:59:00,70.9,59.0,29.97,ENE,68,0.0,2.7,66,0.00,,,0.00,VWS V14.01,2013-08-18 18:59:00,
2013-08-18 12:00:00,71.2,59.7,29.97,NW,315,0.0,2.7,67,0.00,,,0.00,VWS V14.01,2013-08-18 19:00:00,
2013-08-18 12:02:00,71.2,59.3,29.97,WNW,292,0.0,2.7,66,0.00,,,0.00,VWS V14.01,2013-08-18 19:02:00,
2013-08-18 12:03:00,71.2,59.3,29.97,NW,315,0.0,2.7,66,0.00,,,0.00,VWS V14.01,2013-08-18 19:03:00,
2013-08-18 12:04:00,71.2,59.3,29.97,NW,315,0.0,2.7,66,0.00,,,0.00,VWS V14.01,2013-08-18 19:04:00,
2013-08-18 12:06:00,71.6,59.7,29.97,NW,315,0.0,2.0,66,0.00,,,0.00,VWS V14.01,2013-08-18 19:06:00,
2013-08-18 12:07:00,71.8,59.4,29.97,NE,45,0.0,2.0,65,0.00,,,0.00,VWS V14.01,2013-08-18 19:07:00,
2013-08-18 12:08:00,71.8,59.4,29.97,NE,45,0.0,2.0,65,0.00,,,0.00,VWS V14.01,2013-08-18 19:08:00,
2013-08-18 12:09:00,71.6,59.2,29.97,NE,45,0.0,1.1,65,0.00,,,0.00,VWS V14.01,2013-08-18 19:09:00,
2013-08-18 12:11:00,71.8,59.4,29.97,NW,315,0.0,1.1,65,0.00,,,0.00,VWS V14.01,2013-08-18 19:11:00,
2013-08-18 12:12:00,71.8,59.4,29.97,West,270,0.0,0.0,65,0.00,,,0.00,VWS V14.01,2013-08-18 19:12:00,
2013-08-18 12:13:00,71.8,59.4,29.97,South,180,0.0,0.0,65,0.00,,,0.00,VWS V14.01,2013-08-18 19:13:00,
2013-08-18 12:14:00,71.8,59.4,29.97,WNW,292,0.0,0.0,65,0.00,,,0.00,VWS V14.01,2013-08-18 19:14:00,
2013-08-18 12:16:00,72.0,59.6,29.97,WNW,292,0.0,0.0,65,0.00,,,0.00,VWS V14.01,2013-08-18 19:16:00,
2013-08-18 12:17:00,72.0,59.6,29.97,NE,45,0.0,0.0,65,0.00,,,0.00,VWS V14.01,2013-08-18 19:17:00,
2013-08-18 12:18:00,72.0,59.6,29.97,NE,45,0.0,0.0,65,0.00,,,0.00,VWS V14.01,2013-08-18 19:18:00,
2013-08-18 12:19:00,72.0,59.1,29.97,NNW,338,0.0,0.0,64,0.00,,,0.00,VWS V14.01,2013-08-18 19:19:00,
2013-08-18 12:21:00,72.0,59.1,29.97,NNW,338,0.0,0.0,64,0.00,,,0.00,VWS V14.01,2013-08-18 19:21:00,
2013-08-18 12:22:00,72.1,59.3,29.97,West,270,0.0,0.0,64,0.00,,,0.00,VWS V14.01,2013-08-18 19:22:00,
2013-08-18 12:23:00,72.1,59.3,29.97,West,270,0.0,0.0,64,0.00,,,0.00,VWS V14.01,2013-08-18 19:23:00,
2013-08-18 12:25:00,72.3,59.5,29.97,NNW,338,0.0,1.1,64,0.00,,,0.00,VWS V14.01,2013-08-18 19:25:00,
2013-08-18 12:26:00,72.3,59.5,29.97,NNW,338,0.0,1.1,64,0.00,,,0.00,VWS V14.01,2013-08-18 19:26:00,
2013-08-18 12:27:00,72.3,59.5,29.97,ESE,112,0.0,1.1,64,0.00,,,0.00,VWS V14.01,2013-08-18 19:27:00,
2013-08-18 12:28:00,72.3,59.5,29.97,ESE,112,0.0,1.1,64,0.00,,,0.00,VWS V14.01,2013-08-18 19:28:00,
2013-08-18 12:30:00,72.3,59.5,29.97,WNW,292,0.0,1.1,64,0.00,,,0.00,VWS V14.01,2013-08-18 19:30:00,
2013-08-18 12:31:00,72.3,59.5,29.97,NNW,338,0.0,1.1,64,0.00,,,0.00,VWS V14.01,2013-08-18 19:31:00,
2013-08-18 12:32:00,72.5,59.6,29.97,NNW,338,0.0,0.0,64,0.00,,,0.00,VWS V14.01,2013-08-18 19:32:00,
2013-08-18 12:33:00,72.5,59.6,29.97,ENE,68,0.0,0.0,64,0.00,,,0.00,VWS V14.01,2013-08-18 19:33:00,
2013-08-18 12:35:00,72.5,59.2,29.97,NNW,338,0.0,0.0,63,0.00,,,0.00,VWS V14.01,2013-08-18 19:35:00,
2013-08-18 12:36:00,72.7,59.8,29.97,NNE,22,0.0,0.0,64,0.00,,,0.00,VWS V14.01,2013-08-18 19:36:00,
2013-08-18 12:37:00,72.9,59.5,29.97,NNW,338,0.9,0.9,63,0.00,,,0.00,VWS V14.01,2013-08-18 19:37:00,
2013-08-18 12:38:00,72.9,59.5,29.97,NNW,338,0.9,0.9,63,0.00,,,0.00,VWS V14.01,2013-08-18 19:38:00,
2013-08-18 12:40:00,72.9,59.5,29.97,NNW,338,0.0,0.9,63,0.00,,,0.00,VWS V14.01,2013-08-18 19:40:00,
2013-08-18 12:41:00,73.0,59.7,29.97,NNW,338,0.0,0.9,63,0.00,,,0.00,VWS V14.01,2013-08-18 19:41:00,
2013-08-18 12:42:00,73.2,59.9,29.97,NNW,338,0.0,0.9,63,0.00,,,0.00,VWS V14.01,2013-08-18 19:42:00,
2013-08-18 12:43:00,73.2,59.9,29.97,NNW,338,0.0,0.9,63,0.00,,,0.00,VWS V14.01,2013-08-18 19:43:00,
2013-08-18 12:45:00,73.2,59.9,29.97,NNW,338,0.0,0.9,63,0.00,,,0.00,VWS V14.01,2013-08-18 19:45:00,
2013-08-18 12:46:00,73.4,60.0,29.94,NNW,338,0.0,0.9,63,0.00,,,0.00,VWS V14.01,2013-08-18 19:46:00,
2013-08-18 12:47:00,73.4,60.0,29.94,NNE,22,0.9,0.9,63,0.00,,,0.00,VWS V14.01,2013-08-18 19:47:00,
2013-08-18 12:48:00,73.4,60.0,29.94,NNE,22,0.9,0.9,63,0.00,,,0.00,VWS V14.01,2013-08-18 19:48:00,
2013-08-18 12:50:00,73.6,59.8,29.94,NNE,22,0.9,0.9,62,0.00,,,0.00,VWS V14.01,2013-08-18 19:50:00,
2013-08-18 12:51:00,73.6,59.8,29.94,East,90,2.2,2.2,62,0.00,,,0.00,VWS V14.01,2013-08-18 19:51:00,
2013-08-18 12:52:00,73.6,60.2,29.94,NW,315,1.1,2.2,63,0.00,,,0.00,VWS V14.01,2013-08-18 19:52:00,
2013-08-18 12:53:00,73.8,59.9,29.94,NW,315,1.1,2.2,62,0.00,,,0.00,VWS V14.01,2013-08-18 19:53:00,
2013-08-18 12:55:00,73.8,59.9,29.94,WNW,292,0.0,2.2,62,0.00,,,0.00,VWS V14.01,2013-08-18 19:55:00,
2013-08-18 12:56:00,73.8,59.9,29.94,SE,135,0.0,2.2,62,0.00,,,0.00,VWS V14.01,2013-08-18 19:56:00,
2013-08-18 12:58:00,73.8,59.9,29.94,North,0,0.0,2.2,62,0.00,,,0.00,VWS V14.01,2013-08-18 19:58:00,
2013-08-18 13:00:00,73.8,59.9,29.94,NNW,338,0.0,2.2,62,0.00,,,0.00,VWS V14.01,2013-08-18 20:00:00,
2013-08-18 13:01:00,73.6,59.8,29.94,NNW,338,1.1,1.1,62,0.00,,,0.00,VWS V14.01,2013-08-18 20:01:00,
2013-08-18 13:03:00,73.6,59.8,29.94,NNW,338,1.1,1.1,62,0.00,,,0.00,VWS V14.01,2013-08-18 20:03:00,
2013-08-18 13:05:00,73.6,59.8,29.94,NNW,338,0.0,1.1,62,0.00,,,0.00,VWS V14.01,2013-08-18 20:05:00,
2013-08-18 13:06:00,73.6,59.8,29.94,NNW,338,0.0,1.1,62,0.00,,,0.00,VWS V14.01,2013-08-18 20:06:00,
2013-08-18 13:08:00,73.6,59.8,29.94,NNW,338,0.0,1.1,62,0.00,,,0.00,VWS V14.01,2013-08-18 20:08:00,
2013-08-18 13:09:00,73.6,59.8,29.94,NNW,338,0.0,1.1,62,0.00,,,0.00,VWS V14.01,2013-08-18 20:09:00,
2013-08-18 13:10:00,73.6,59.8,29.94,NNW,338,0.0,1.1,62,0.00,,,0.00,VWS V14.01,2013-08-18 20:10:00,
2013-08-18 13:11:00,73.6,59.8,29.94,NW,315,0.0,1.1,62,0.00,,,0.00,VWS V14.01,2013-08-18 20:11:00,
2013-08-18 13:13:00,73.6,59.8,29.94,NW,315,0.0,1.1,62,0.00,,,0.00,VWS V14.01,2013-08-18 20:13:00,
2013-08-18 13:14:00,73.6,59.8,29.94,WNW,292,0.0,1.1,62,0.00,,,0.00,VWS V14.01,2013-08-18 20:14:00,
2013-08-18 13:15:00,73.9,60.1,29.94,WNW,292,0.0,1.1,62,0.00,,,0.00,VWS V14.01,2013-08-18 20:15:00,
2013-08-18 13:17:00,74.1,60.3,29.94,North,0,0.0,0.0,62,0.00,,,0.00,VWS V14.01,2013-08-18 20:17:00,
2013-08-18 13:18:00,74.1,60.3,29.94,NNW,338,0.0,0.0,62,0.00,,,0.00,VWS V14.01,2013-08-18 20:18:00,
2013-08-18 13:19:00,74.1,60.3,29.94,NW,315,0.0,0.0,62,0.00,,,0.00,VWS V14.01,2013-08-18 20:19:00,
2013-08-18 13:20:00,73.9,60.6,29.94,NW,315,0.0,0.0,63,0.00,,,0.00,VWS V14.01,2013-08-18 20:20:00,
2013-08-18 13:21:00,74.1,60.7,29.94,NW,315,0.0,0.0,63,0.00,,,0.00,VWS V14.01,2013-08-18 20:21:00,
2013-08-18 13:23:00,74.1,60.7,29.94,NW,315,1.6,1.6,63,0.00,,,0.00,VWS V14.01,2013-08-18 20:23:00,
2013-08-18 13:24:00,74.1,60.7,29.94,NW,315,0.0,1.6,63,0.00,,,0.00,VWS V14.01,2013-08-18 20:24:00,
2013-08-18 13:25:00,74.3,60.5,29.94,NW,315,0.0,1.6,62,0.00,,,0.00,VWS V14.01,2013-08-18 20:25:00,
2013-08-18 13:27:00,74.5,61.1,29.94,NNE,22,0.0,1.6,63,0.00,,,0.00,VWS V14.01,2013-08-18 20:27:00,
2013-08-18 13:28:00,74.5,61.1,29.94,NNW,338,0.0,1.6,63,0.00,,,0.00,VWS V14.01,2013-08-18 20:28:00,
2013-08-18 13:29:00,74.5,61.1,29.94,NW,315,0.9,1.6,63,0.00,,,0.00,VWS V14.01,2013-08-18 20:29:00,
2013-08-18 13:30:00,74.5,60.6,29.94,WNW,292,2.2,2.2,62,0.00,,,0.00,VWS V14.01,2013-08-18 20:30:00,
2013-08-18 13:32:00,74.5,60.6,29.94,SSE,158,1.6,2.2,62,0.00,,,0.00,VWS V14.01,2013-08-18 20:32:00,
2013-08-18 13:33:00,74.5,60.6,29.94,West,270,2.5,2.5,62,0.00,,,0.00,VWS V14.01,2013-08-18 20:33:00,
2013-08-18 13:34:00,74.5,60.6,29.94,West,270,2.5,2.5,62,0.00,,,0.00,VWS V14.01,2013-08-18 20:34:00,
2013-08-18 13:35:00,74.3,60.0,29.94,West,270,0.9,2.5,61,0.00,,,0.00,VWS V14.01,2013-08-18 20:35:00,
2013-08-18 13:37:00,74.3,60.0,29.94,WSW,248,1.3,2.5,61,0.00,,,0.00,VWS V14.01,2013-08-18 20:37:00,
2013-08-18 13:38:00,74.3,60.0,29.94,WSW,248,0.0,2.5,61,0.00,,,0.00,VWS V14.01,2013-08-18 20:38:00,
2013-08-18 13:39:00,74.1,59.8,29.94,WNW,292,0.0,2.5,61,0.00,,,0.00,VWS V14.01,2013-08-18 20:39:00,
2013-08-18 13:40:00,74.1,59.8,29.94,ENE,68,0.9,2.5,61,0.00,,,0.00,VWS V14.01,2013-08-18 20:40:00,
2013-08-18 13:42:00,74.1,59.8,29.94,WNW,292,0.0,1.3,61,0.00,,,0.00,VWS V14.01,2013-08-18 20:42:00,
2013-08-18 13:43:00,74.1,59.8,29.94,SSW,202,2.0,2.0,61,0.00,,,0.00,VWS V14.01,2013-08-18 20:43:00,
2013-08-18 13:44:00,74.1,59.8,29.94,SSW,202,2.0,2.0,61,0.00,,,0.00,VWS V14.01,2013-08-18 20:44:00,
2013-08-18 13:45:00,74.3,60.0,29.94,West,270,2.5,2.5,61,0.00,,,0.00,VWS V14.01,2013-08-18 20:45:00,
2013-08-18 13:47:00,74.3,60.0,29.94,NNE,22,0.0,2.5,61,0.00,,,0.00,VWS V14.01,2013-08-18 20:47:00,
2013-08-18 13:48:00,74.3,60.0,29.94,SW,225,1.1,2.5,61,0.00,,,0.00,VWS V14.01,2013-08-18 20:48:00,
2013-08-18 13:49:00,74.3,60.0,29.94,SW,225,1.1,2.5,61,0.00,,,0.00,VWS V14.01,2013-08-18 20:49:00,
2013-08-18 13:50:00,74.7,60.3,29.94,WSW,248,0.0,2.5,61,0.00,,,0.00,VWS V14.01,2013-08-18 20:50:00,
2013-08-18 13:52:00,74.7,60.3,29.94,WSW,248,0.0,2.5,61,0.00,,,0.00,VWS V14.01,2013-08-18 20:52:00,
2013-08-18 13:53:00,74.7,59.9,29.94,WNW,292,0.0,2.5,60,0.00,,,0.00,VWS V14.01,2013-08-18 20:53:00,
2013-08-18 13:54:00,74.7,59.9,29.94,WNW,292,0.0,2.5,60,0.00,,,0.00,VWS V14.01,2013-08-18 20:54:00,
2013-08-18 13:55:00,74.7,59.9,29.94,WNW,292,0.0,2.5,60,0.00,,,0.00,VWS V14.01,2013-08-18 20:55:00,
2013-08-18 13:57:00,74.7,60.3,29.94,SW,225,1.3,1.3,61,0.00,,,0.00,VWS V14.01,2013-08-18 20:57:00,
2013-08-18 13:58:00,74.8,60.5,29.94,WNW,292,0.0,1.3,61,0.00,,,0.00,VWS V14.01,2013-08-18 20:58:00,
2013-08-18 13:59:00,74.8,60.5,29.94,WNW,292,0.0,1.3,61,0.00,,,0.00,VWS V14.01,2013-08-18 20:59:00,
2013-08-18 14:00:00,74.8,60.0,29.94,WNW,292,0.9,1.3,60,0.00,,,0.00,VWS V14.01,2013-08-18 21:00:00,
2013-08-18 14:02:00,75.0,60.7,29.94,NW,315,0.0,1.3,61,0.00,,,0.00,VWS V14.01,2013-08-18 21:02:00,
2013-08-18 14:04:00,75.0,60.7,29.94,NW,315,1.6,1.6,61,0.00,,,0.00,VWS V14.01,2013-08-18 21:04:00,
2013-08-18 14:05:00,75.0,60.2,29.94,WNW,292,1.1,2.0,60,0.00,,,0.00,VWS V14.01,2013-08-18 21:05:00,
2013-08-18 14:07:00,75.0,60.2,29.94,NW,315,2.0,2.0,60,0.00,,,0.00,VWS V14.01,2013-08-18 21:07:00,
2013-08-18 14:09:00,74.8,60.0,29.94,NW,315,0.9,2.0,60,0.00,,,0.00,VWS V14.01,2013-08-18 21:09:00,
2013-08-18 14:10:00,74.8,60.0,29.94,West,270,0.0,2.0,60,0.00,,,0.00,VWS V14.01,2013-08-18 21:10:00,
2013-08-18 14:12:00,74.8,60.0,29.94,WNW,292,1.1,2.0,60,0.00,,,0.00,VWS V14.01,2013-08-18 21:12:00,
2013-08-18 14:14:00,74.8,60.0,29.94,WNW,292,0.9,2.0,60,0.00,,,0.00,VWS V14.01,2013-08-18 21:14:00,
2013-08-18 14:16:00,74.8,60.0,29.94,NW,315,0.0,1.1,60,0.00,,,0.00,VWS V14.01,2013-08-18 21:16:00,
2013-08-18 14:17:00,74.8,60.0,29.94,WNW,292,0.0,1.1,60,0.00,,,0.00,VWS V14.01,2013-08-18 21:17:00,
2013-08-18 14:19:00,74.8,60.0,29.94,WNW,292,1.1,1.1,60,0.00,,,0.00,VWS V14.01,2013-08-18 21:19:00,
2013-08-18 14:21:00,74.7,59.9,29.94,WNW,292,0.0,1.1,60,0.00,,,0.00,VWS V14.01,2013-08-18 21:21:00,
2013-08-18 14:22:00,74.7,59.9,29.94,NW,315,0.0,1.1,60,0.00,,,0.00,VWS V14.01,2013-08-18 21:22:00,
2013-08-18 14:24:00,74.8,60.5,29.94,NW,315,0.0,1.1,61,0.00,,,0.00,VWS V14.01,2013-08-18 21:24:00,
2013-08-18 14:26:00,75.0,60.7,29.94,West,270,0.0,1.1,61,0.00,,,0.00,VWS V14.01,2013-08-18 21:26:00,
2013-08-18 14:27:00,75.0,60.7,29.94,NNW,338,0.0,1.1,61,0.00,,,0.00,VWS V14.01,2013-08-18 21:27:00,
2013-08-18 14:29:00,74.8,60.5,29.94,NW,315,0.0,1.6,61,0.00,,,0.00,VWS V14.01,2013-08-18 21:29:00,
2013-08-18 14:31:00,75.2,60.4,29.94,NW,315,1.1,1.6,60,0.00,,,0.00,VWS V14.01,2013-08-18 21:31:00,
2013-08-18 14:32:00,75.2,60.4,29.94,NNW,338,0.0,1.6,60,0.00,,,0.00,VWS V14.01,2013-08-18 21:32:00,
2013-08-18 14:34:00,75.4,60.5,29.94,WNW,292,1.3,1.6,60,0.00,,,0.00,VWS V14.01,2013-08-18 21:34:00,
2013-08-18 14:36:00,75.4,60.5,29.94,WNW,292,1.1,1.6,60,0.00,,,0.00,VWS V14.01,2013-08-18 21:36:00,
2013-08-18 14:37:00,75.4,60.5,29.94,NW,315,0.0,1.6,60,0.00,,,0.00,VWS V14.01,2013-08-18 21:37:00,
2013-08-18 14:39:00,75.4,60.1,29.94,NW,315,0.0,2.0,59,0.00,,,0.00,VWS V14.01,2013-08-18 21:39:00,
2013-08-18 14:41:00,75.6,60.7,29.94,East,90,0.0,2.0,60,0.00,,,0.00,VWS V14.01,2013-08-18 21:41:00,
2013-08-18 14:42:00,75.4,60.1,29.94,NW,315,0.0,2.0,59,0.00,,,0.00,VWS V14.01,2013-08-18 21:42:00,
2013-08-18 14:44:00,75.4,60.1,29.94,NNE,22,0.0,2.0,59,0.00,,,0.00,VWS V14.01,2013-08-18 21:44:00,
2013-08-18 14:45:00,75.4,60.1,29.94,NW,315,0.0,2.0,59,0.00,,,0.00,VWS V14.01,2013-08-18 21:45:00,
2013-08-18 14:46:00,75.4,60.1,29.94,West,270,0.0,2.0,59,0.00,,,0.00,VWS V14.01,2013-08-18 21:46:00,
2013-08-18 14:47:00,75.4,60.1,29.94,WNW,292,0.0,2.0,59,0.00,,,0.00,VWS V14.01,2013-08-18 21:47:00,
2013-08-18 14:49:00,75.7,59.9,29.94,NW,315,0.0,2.0,58,0.00,,,0.00,VWS V14.01,2013-08-18 21:49:00,
2013-08-18 14:50:00,75.7,59.9,29.94,NW,315,0.0,2.0,58,0.00,,,0.00,VWS V14.01,2013-08-18 21:50:00,
2013-08-18 14:51:00,75.9,60.1,29.94,WNW,292,0.0,2.0,58,0.00,,,0.00,VWS V14.01,2013-08-18 21:51:00,
2013-08-18 14:53:00,75.7,59.9,29.94,NW,315,0.0,2.0,58,0.00,,,0.00,VWS V14.01,2013-08-18 21:53:00,
2013-08-18 14:54:00,75.7,59.9,29.94,NW,315,0.0,2.0,58,0.00,,,0.00,VWS V14.01,2013-08-18 21:54:00,
2013-08-18 14:55:00,75.7,59.9,29.94,West,270,2.5,2.5,58,0.00,,,0.00,VWS V14.01,2013-08-18 21:55:00,
2013-08-18 14:56:00,75.7,59.9,29.94,NW,315,0.9,2.5,58,0.00,,,0.00,VWS V14.01,2013-08-18 21:56:00,
2013-08-18 14:58:00,75.7,59.9,29.94,WNW,292,0.0,2.5,58,0.00,,,0.00,VWS V14.01,2013-08-18 21:58:00,
2013-08-18 14:59:00,75.7,59.9,29.94,WNW,292,0.0,2.5,58,0.00,,,0.00,VWS V14.01,2013-08-18 21:59:00,
2013-08-18 15:00:00,75.7,59.9,29.94,WNW,292,0.0,2.5,58,0.00,,,0.00,VWS V14.01,2013-08-18 22:00:00,
2013-08-18 15:01:00,75.7,59.9,29.94,NNW,338,0.0,2.5,58,0.00,,,0.00,VWS V14.01,2013-08-18 22:01:00,
2013-08-18 15:03:00,75.9,60.1,29.94,West,270,2.0,2.7,58,0.00,,,0.00,VWS V14.01,2013-08-18 22:03:00,
2013-08-18 15:04:00,75.9,60.6,29.94,NNW,338,0.9,2.7,59,0.00,,,0.00,VWS V14.01,2013-08-18 22:04:00,
2013-08-18 15:05:00,75.9,60.6,29.94,NNW,338,0.9,2.7,59,0.00,,,0.00,VWS V14.01,2013-08-18 22:05:00,
2013-08-18 15:06:00,75.7,60.4,29.94,NNW,338,0.0,2.7,59,0.00,,,0.00,VWS V14.01,2013-08-18 22:06:00,
2013-08-18 15:08:00,75.7,60.4,29.94,NNW,338,0.0,2.7,59,0.00,,,0.00,VWS V14.01,2013-08-18 22:08:00,
2013-08-18 15:09:00,75.7,59.9,29.94,NNE,22,0.0,2.7,58,0.00,,,0.00,VWS V14.01,2013-08-18 22:09:00,
2013-08-18 15:10:00,75.7,59.9,29.91,NNW,338,1.3,2.7,58,0.00,,,0.00,VWS V14.01,2013-08-18 22:10:00,
2013-08-18 15:11:00,75.7,59.9,29.91,NNW,338,1.3,2.7,58,0.00,,,0.00,VWS V14.01,2013-08-18 22:11:00,
2013-08-18 15:12:00,75.7,59.9,29.91,NW,315,0.0,2.7,58,0.00,,,0.00,VWS V14.01,2013-08-18 22:12:00,
2013-08-18 15:13:00,75.9,59.6,29.91,WNW,292,1.1,2.7,57,0.00,,,0.00,VWS V14.01,2013-08-18 22:13:00,
2013-08-18 15:14:00,75.9,59.6,29.91,WNW,292,0.0,2.7,57,0.00,,,0.00,VWS V14.01,2013-08-18 22:14:00,
2013-08-18 15:15:00,75.9,59.6,29.91,WNW,292,0.0,2.7,57,0.00,,,0.00,VWS V14.01,2013-08-18 22:15:00,
2013-08-18 15:16:00,75.9,60.1,29.94,NW,315,1.1,2.7,58,0.00,,,0.00,VWS V14.01,2013-08-18 22:16:00,
2013-08-18 15:17:00,75.9,60.1,29.94,NW,315,1.1,2.7,58,0.00,,,0.00,VWS V14.01,2013-08-18 22:17:00,
2013-08-18 15:18:00,75.9,60.1,29.94,West,270,0.9,2.7,58,0.00,,,0.00,VWS V14.01,2013-08-18 22:18:00,
2013-08-18 15:19:00,75.9,59.6,29.94,ENE,68,0.0,2.0,57,0.00,,,0.00,VWS V14.01,2013-08-18 22:19:00,
2013-08-18 15:20:00,75.9,59.6,29.94,NNW,338,0.0,1.3,57,0.00,,,0.00,VWS V14.01,2013-08-18 22:20:00,
2013-08-18 15:21:00,75.9,59.6,29.94,WSW,248,2.5,2.5,57,0.00,,,0.00,VWS V14.01,2013-08-18 22:21:00,
2013-08-18 15:22:00,75.9,59.6,29.94,WNW,292,0.0,2.5,57,0.00,,,0.00,VWS V14.01,2013-08-18 22:22:00,
2013-08-18 15:23:00,76.1,59.8,29.94,WNW,292,0.0,2.5,57,0.00,,,0.00,VWS V14.01,2013-08-18 22:23:00,
2013-08-18 15:24:00,76.1,59.8,29.94,WNW,292,2.0,2.5,57,0.00,,,0.00,VWS V14.01,2013-08-18 22:24:00,
2013-08-18 15:25:00,76.1,59.8,29.94,WNW,292,0.0,2.5,57,0.00,,,0.00,VWS V14.01,2013-08-18 22:25:00,
2013-08-18 15:26:00,76.1,59.8,29.94,East,90,0.9,2.5,57,0.00,,,0.00,VWS V14.01,2013-08-18 22:26:00,
2013-08-18 15:27:00,76.1,59.3,29.94,East,90,0.9,2.5,56,0.00,,,0.00,VWS V14.01,2013-08-18 22:27:00,
2013-08-18 15:28:00,76.1,59.3,29.94,NW,315,0.0,2.5,56,0.00,,,0.00,VWS V14.01,2013-08-18 22:28:00,
2013-08-18 15:30:00,76.1,59.3,29.94,NNE,22,0.0,2.5,56,0.00,,,0.00,VWS V14.01,2013-08-18 22:30:00,
2013-08-18 15:31:00,76.1,59.8,29.91,NNE,22,1.6,2.5,57,0.00,,,0.00,VWS V14.01,2013-08-18 22:31:00,
2013-08-18 15:32:00,76.1,59.8,29.91,NNW,338,0.0,2.5,57,0.00,,,0.00,VWS V14.01,2013-08-18 22:32:00,
2013-08-18 15:33:00,76.1,59.8,29.91,NNW,338,1.6,2.5,57,0.00,,,0.00,VWS V14.01,2013-08-18 22:33:00,
2013-08-18 15:35:00,76.1,59.3,29.91,WNW,292,0.0,3.4,56,0.00,,,0.00,VWS V14.01,2013-08-18 22:35:00,
2013-08-18 15:36:00,76.1,59.3,29.91,WNW,292,0.0,3.4,56,0.00,,,0.00,VWS V14.01,2013-08-18 22:36:00,
2013-08-18 15:37:00,76.1,59.3,29.91,WNW,292,1.6,3.4,56,0.00,,,0.00,VWS V14.01,2013-08-18 22:37:00,
2013-08-18 15:38:00,76.3,59.5,29.91,WNW,292,2.5,3.4,56,0.00,,,0.00,VWS V14.01,2013-08-18 22:38:00,
2013-08-18 15:40:00,76.3,59.5,29.91,SW,225,0.0,3.4,56,0.00,,,0.00,VWS V14.01,2013-08-18 22:40:00,
2013-08-18 15:41:00,76.3,59.5,29.91,WNW,292,1.6,3.4,56,0.00,,,0.00,VWS V14.01,2013-08-18 22:41:00,
2013-08-18 15:42:00,76.3,59.5,29.91,West,270,3.4,3.4,56,0.00,,,0.00,VWS V14.01,2013-08-18 22:42:00,
2013-08-18 15:43:00,76.3,59.5,29.91,WNW,292,1.6,3.4,56,0.00,,,0.00,VWS V14.01,2013-08-18 22:43:00,
2013-08-18 15:45:00,76.3,59.5,29.91,NW,315,1.3,3.4,56,0.00,,,0.00,VWS V14.01,2013-08-18 22:45:00,
2013-08-18 15:46:00,76.3,59.5,29.91,WNW,292,3.1,3.4,56,0.00,,,0.00,VWS V14.01,2013-08-18 22:46:00,
2013-08-18 15:47:00,76.3,59.5,29.91,NW,315,1.1,3.4,56,0.00,,,0.00,VWS V14.01,2013-08-18 22:47:00,
2013-08-18 15:48:00,76.3,59.5,29.91,East,90,0.9,3.4,56,0.00,,,0.00,VWS V14.01,2013-08-18 22:48:00,
2013-08-18 15:50:00,76.5,59.6,29.91,NNW,338,0.9,3.4,56,0.00,,,0.00,VWS V14.01,2013-08-18 22:50:00,
2013-08-18 15:51:00,76.6,59.8,29.91,NW,315,0.9,3.4,56,0.00,,,0.00,VWS V14.01,2013-08-18 22:51:00,
2013-08-18 15:52:00,76.6,59.8,29.91,West,270,1.1,3.4,56,0.00,,,0.00,VWS V14.01,2013-08-18 22:52:00,
2013-08-18 15:53:00,76.5,59.6,29.91,WNW,292,0.0,3.4,56,0.00,,,0.00,VWS V14.01,2013-08-18 22:53:00,
2013-08-18 15:55:00,76.5,59.6,29.91,WNW,292,0.9,3.4,56,0.00,,,0.00,VWS V14.01,2013-08-18 22:55:00,
2013-08-18 15:56:00,76.5,60.1,29.91,WNW,292,0.0,3.4,57,0.00,,,0.00,VWS V14.01,2013-08-18 22:56:00,
2013-08-18 15:57:00,76.5,60.1,29.91,NW,315,0.0,3.4,57,0.00,,,0.00,VWS V14.01,2013-08-18 22:57:00,
2013-08-18 15:58:00,76.5,59.6,29.91,NW,315,0.9,3.1,56,0.00,,,0.00,VWS V14.01,2013-08-18 22:58:00,
2013-08-18 16:00:00,76.5,59.6,29.91,NNW,338,0.9,3.1,56,0.00,,,0.00,VWS V14.01,2013-08-18 23:00:00,
2013-08-18 16:01:00,76.5,59.6,29.91,NE,45,0.0,3.1,56,0.00,,,0.00,VWS V14.01,2013-08-18 23:01:00,
2013-08-18 16:02:00,76.5,59.6,29.91,WNW,292,1.1,1.6,56,0.00,,,0.00,VWS V14.01,2013-08-18 23:02:00,
2013-08-18 16:03:00,76.5,59.6,29.91,NW,315,0.0,1.6,56,0.00,,,0.00,VWS V14.01,2013-08-18 23:03:00,
2013-08-18 16:05:00,76.5,59.1,29.91,WNW,292,1.1,1.6,55,0.00,,,0.00,VWS V14.01,2013-08-18 23:05:00,
2013-08-18 16:06:00,76.5,59.1,29.91,WNW,292,2.2,2.2,55,0.00,,,0.00,VWS V14.01,2013-08-18 23:06:00,
2013-08-18 16:07:00,76.5,59.1,29.91,WNW,292,0.0,2.2,55,0.00,,,0.00,VWS V14.01,2013-08-18 23:07:00,
2013-08-18 16:08:00,76.5,59.1,29.91,North,0,0.0,2.2,55,0.00,,,0.00,VWS V14.01,2013-08-18 23:08:00,
2013-08-18 16:10:00,76.3,58.9,29.91,WNW,292,0.9,2.2,55,0.00,,,0.00,VWS V14.01,2013-08-18 23:10:00,
2013-08-18 16:11:00,76.3,58.9,29.91,WNW,292,0.9,2.2,55,0.00,,,0.00,VWS V14.01,2013-08-18 23:11:00,
2013-08-18 16:13:00,76.5,58.6,29.91,WNW,292,0.0,2.2,54,0.00,,,0.00,VWS V14.01,2013-08-18 23:13:00,
2013-08-18 16:15:00,76.3,58.9,29.91,NE,45,0.0,2.2,55,0.00,,,0.00,VWS V14.01,2013-08-18 23:15:00,
2013-08-18 16:17:00,76.3,58.9,29.91,NNW,338,0.0,2.2,55,0.00,,,0.00,VWS V14.01,2013-08-18 23:17:00,
2013-08-18 16:18:00,76.3,58.9,29.91,West,270,0.0,2.2,55,0.00,,,0.00,VWS V14.01,2013-08-18 23:18:00,
2013-08-18 16:20:00,76.3,58.9,29.91,WNW,292,0.9,2.2,55,0.00,,,0.00,VWS V14.01,2013-08-18 23:20:00,
2013-08-18 16:22:00,76.5,59.1,29.91,WNW,292,2.2,2.2,55,0.00,,,0.00,VWS V14.01,2013-08-18 23:22:00,
2013-08-18 16:23:00,76.5,59.1,29.91,WNW,292,2.2,2.2,55,0.00,,,0.00,VWS V14.01,2013-08-18 23:23:00,
2013-08-18 16:25:00,76.5,58.6,29.91,NNW,338,2.0,2.2,54,0.00,,,0.00,VWS V14.01,2013-08-18 23:25:00,
2013-08-18 16:27:00,76.5,59.1,29.91,NE,45,0.0,2.9,55,0.00,,,0.00,VWS V14.01,2013-08-18 23:27:00,
2013-08-18 16:28:00,76.5,59.1,29.91,NE,45,0.0,2.9,55,0.00,,,0.00,VWS V14.01,2013-08-18 23:28:00,
2013-08-18 16:30:00,76.5,59.1,29.91,WSW,248,2.5,2.9,55,0.00,,,0.00,VWS V14.01,2013-08-18 23:30:00,
2013-08-18 16:32:00,76.3,58.9,29.91,WSW,248,0.0,2.9,55,0.00,,,0.00,VWS V14.01,2013-08-18 23:32:00,
2013-08-18 16:33:00,76.3,58.9,29.91,NNW,338,2.0,2.9,55,0.00,,,0.00,VWS V14.01,2013-08-18 23:33:00,
2013-08-18 16:35:00,76.5,59.1,29.91,NW,315,0.0,2.9,55,0.00,,,0.00,VWS V14.01,2013-08-18 23:35:00,
2013-08-18 16:37:00,76.5,59.1,29.91,ENE,68,2.5,2.9,55,0.00,,,0.00,VWS V14.01,2013-08-18 23:37:00,
2013-08-18 16:38:00,76.5,59.1,29.91,SW,225,3.6,3.6,55,0.00,,,0.00,VWS V14.01,2013-08-18 23:38:00,
2013-08-18 16:39:00,76.5,59.1,29.91,SW,225,3.6,3.6,55,0.00,,,0.00,VWS V14.01,2013-08-18 23:39:00,
2013-08-18 16:40:00,76.3,58.4,29.91,WNW,292,0.0,3.6,54,0.00,,,0.00,VWS V14.01,2013-08-18 23:40:00,
2013-08-18 16:42:00,76.1,58.3,29.91,WNW,292,0.9,3.6,54,0.00,,,0.00,VWS V14.01,2013-08-18 23:42:00,
2013-08-18 16:43:00,76.1,58.3,29.91,WSW,248,3.6,3.6,54,0.00,,,0.00,VWS V14.01,2013-08-18 23:43:00,
2013-08-18 16:44:00,76.1,58.3,29.91,WNW,292,3.1,3.6,54,0.00,,,0.00,VWS V14.01,2013-08-18 23:44:00,
2013-08-18 16:45:00,76.1,58.3,29.91,WNW,292,0.9,3.6,54,0.00,,,0.00,VWS V14.01,2013-08-18 23:45:00,
2013-08-18 16:47:00,76.1,58.3,29.91,West,270,2.0,3.6,54,0.00,,,0.00,VWS V14.01,2013-08-18 23:47:00,
2013-08-18 16:48:00,75.9,58.1,29.91,West,270,1.6,3.6,54,0.00,,,0.00,VWS V14.01,2013-08-18 23:48:00,
2013-08-18 16:49:00,75.9,58.1,29.91,WNW,292,1.3,3.6,54,0.00,,,0.00,VWS V14.01,2013-08-18 23:49:00,
2013-08-18 16:50:00,75.9,58.1,29.91,NW,315,0.0,3.6,54,0.00,,,0.00,VWS V14.01,2013-08-18 23:50:00,
2013-08-18 16:51:00,75.9,58.1,29.91,NW,315,0.0,3.6,54,0.00,,,0.00,VWS V14.01,2013-08-18 23:51:00,
2013-08-18 16:52:00,76.1,58.3,29.91,West,270,2.7,3.6,54,0.00,,,0.00,VWS V14.01,2013-08-18 23:52:00,
2013-08-18 16:53:00,76.3,58.4,29.91,WNW,292,2.9,3.6,54,0.00,,,0.00,VWS V14.01,2013-08-18 23:53:00,
2013-08-18 16:54:00,76.3,58.4,29.91,WNW,292,2.9,3.6,54,0.00,,,0.00,VWS V14.01,2013-08-18 23:54:00,
2013-08-18 16:55:00,76.1,58.3,29.91,West,270,2.7,3.6,54,0.00,,,0.00,VWS V14.01,2013-08-18 23:55:00,
2013-08-18 16:56:00,76.1,58.3,29.91,West,270,0.0,3.6,54,0.00,,,0.00,VWS V14.01,2013-08-18 23:56:00,
2013-08-18 16:57:00,75.9,58.1,29.91,NW,315,1.3,3.6,54,0.00,,,0.00,VWS V14.01,2013-08-18 23:57:00,
2013-08-18 16:58:00,75.9,58.1,29.91,WNW,292,0.0,3.6,54,0.00,,,0.00,VWS V14.01,2013-08-18 23:58:00,
2013-08-18 16:59:00,75.9,58.1,29.91,NNE,22,1.1,3.6,54,0.00,,,0.00,VWS V14.01,2013-08-18 23:59:00,
2013-08-18 17:00:00,76.1,58.3,29.91,NNW,338,0.9,3.1,54,0.00,,,0.00,VWS V14.01,2013-08-19 00:00:00,
2013-08-18 17:01:00,76.1,58.3,29.91,NNW,338,0.9,2.9,54,0.00,,,0.00,VWS V14.01,2013-08-19 00:01:00,
2013-08-18 17:02:00,75.9,58.1,29.91,ESE,112,0.0,2.9,54,0.00,,,0.00,VWS V14.01,2013-08-19 00:02:00,
2013-08-18 17:03:00,75.9,58.1,29.91,ESE,112,0.0,2.9,54,0.00,,,0.00,VWS V14.01,2013-08-19 00:03:00,
2013-08-18 17:04:00,75.9,58.1,29.91,West,270,1.6,2.9,54,0.00,,,0.00,VWS V14.01,2013-08-19 00:04:00,
2013-08-18 17:05:00,75.9,58.1,29.91,NE,45,1.6,2.9,54,0.00,,,0.00,VWS V14.01,2013-08-19 00:05:00,
2013-08-18 17:06:00,75.9,58.1,29.91,SSW,202,0.0,2.9,54,0.00,,,0.00,VWS V14.01,2013-08-19 00:06:00,
2013-08-18 17:07:00,75.9,58.1,29.91,NW,315,1.6,2.9,54,0.00,,,0.00,VWS V14.01,2013-08-19 00:07:00,
2013-08-18 17:08:00,75.9,58.1,29.91,NNW,338,0.0,2.9,54,0.00,,,0.00,VWS V14.01,2013-08-19 00:08:00,
2013-08-18 17:09:00,75.7,57.9,29.91,West,270,2.7,2.9,54,0.00,,,0.00,VWS V14.01,2013-08-19 00:09:00,
2013-08-18 17:11:00,75.7,57.9,29.91,NW,315,0.9,2.7,54,0.00,,,0.00,VWS V14.01,2013-08-19 00:11:00,
2013-08-18 17:12:00,75.7,57.9,29.91,WNW,292,2.0,2.7,54,0.00,,,0.00,VWS V14.01,2013-08-19 00:12:00,
2013-08-18 17:13:00,75.7,57.4,29.91,NW,315,0.0,2.7,53,0.00,,,0.00,VWS V14.01,2013-08-19 00:13:00,
2013-08-18 17:14:00,75.6,57.2,29.91,WNW,292,0.0,2.7,53,0.00,,,0.00,VWS V14.01,2013-08-19 00:14:00,
2013-08-18 17:16:00,75.6,57.8,29.91,ENE,68,0.0,2.7,54,0.00,,,0.00,VWS V14.01,2013-08-19 00:16:00,
2013-08-18 17:17:00,75.6,57.8,29.91,WNW,292,0.0,2.7,54,0.00,,,0.00,VWS V14.01,2013-08-19 00:17:00,
2013-08-18 17:18:00,75.6,57.2,29.91,NW,315,0.0,2.7,53,0.00,,,0.00,VWS V14.01,2013-08-19 00:18:00,
2013-08-18 17:19:00,75.6,57.2,29.91,NW,315,2.2,2.7,53,0.00,,,0.00,VWS V14.01,2013-08-19 00:19:00,
2013-08-18 17:21:00,75.6,57.2,29.91,WNW,292,1.3,2.7,53,0.00,,,0.00,VWS V14.01,2013-08-19 00:21:00,
2013-08-18 17:22:00,75.6,57.2,29.91,WNW,292,2.9,2.9,53,0.00,,,0.00,VWS V14.01,2013-08-19 00:22:00,
2013-08-18 17:23:00,75.6,57.2,29.91,NNW,338,0.0,2.9,53,0.00,,,0.00,VWS V14.01,2013-08-19 00:23:00,
2013-08-18 17:24:00,75.6,57.2,29.91,NNE,22,2.5,2.9,53,0.00,,,0.00,VWS V14.01,2013-08-19 00:24:00,
2013-08-18 17:26:00,75.4,57.1,29.91,WNW,292,2.5,4.9,53,0.00,,,0.00,VWS V14.01,2013-08-19 00:26:00,
2013-08-18 17:27:00,75.2,56.9,29.91,NNW,338,1.6,4.9,53,0.00,,,0.00,VWS V14.01,2013-08-19 00:27:00,
2013-08-18 17:28:00,75.2,56.9,29.91,NW,315,0.9,4.9,53,0.00,,,0.00,VWS V14.01,2013-08-19 00:28:00,
2013-08-18 17:29:00,75.2,56.9,29.91,WNW,292,3.4,4.9,53,0.00,,,0.00,VWS V14.01,2013-08-19 00:29:00,
2013-08-18 17:31:00,75.4,57.1,29.91,West,270,1.6,4.9,53,0.00,,,0.00,VWS V14.01,2013-08-19 00:31:00,
2013-08-18 17:32:00,75.4,57.1,29.91,WNW,292,1.3,4.9,53,0.00,,,0.00,VWS V14.01,2013-08-19 00:32:00,
2013-08-18 17:33:00,75.4,57.1,29.91,NW,315,0.0,4.9,53,0.00,,,0.00,VWS V14.01,2013-08-19 00:33:00,
2013-08-18 17:34:00,75.2,56.9,29.91,SW,225,0.0,4.9,53,0.00,,,0.00,VWS V14.01,2013-08-19 00:34:00,
2013-08-18 17:36:00,75.4,57.6,29.91,NE,45,0.0,4.9,54,0.00,,,0.00,VWS V14.01,2013-08-19 00:36:00,
2013-08-18 17:37:00,75.2,56.9,29.91,NNW,338,0.0,4.9,53,0.00,,,0.00,VWS V14.01,2013-08-19 00:37:00,
2013-08-18 17:38:00,75.2,56.9,29.91,West,270,0.0,4.9,53,0.00,,,0.00,VWS V14.01,2013-08-19 00:38:00,
2013-08-18 17:39:00,75.0,57.3,29.91,SSW,202,2.7,4.9,54,0.00,,,0.00,VWS V14.01,2013-08-19 00:39:00,
2013-08-18 17:41:00,75.0,57.3,29.91,WNW,292,1.1,4.9,54,0.00,,,0.00,VWS V14.01,2013-08-19 00:41:00,
2013-08-18 17:42:00,75.0,57.3,29.91,East,90,1.1,3.4,54,0.00,,,0.00,VWS V14.01,2013-08-19 00:42:00,
2013-08-18 17:43:00,75.0,57.3,29.91,WSW,248,0.0,3.4,54,0.00,,,0.00,VWS V14.01,2013-08-19 00:43:00,
2013-08-18 17:44:00,75.0,57.3,29.91,NNW,338,0.0,3.4,54,0.00,,,0.00,VWS V14.01,2013-08-19 00:44:00,
2013-08-18 17:46:00,74.8,57.1,29.91,WNW,292,2.2,2.7,54,0.00,,,0.00,VWS V14.01,2013-08-19 00:46:00,
2013-08-18 17:47:00,74.8,57.1,29.91,WNW,292,1.6,2.7,54,0.00,,,0.00,VWS V14.01,2013-08-19 00:47:00,
2013-08-18 17:48:00,74.8,57.1,29.91,WNW,292,1.6,2.7,54,0.00,,,0.00,VWS V14.01,2013-08-19 00:48:00,
2013-08-18 17:49:00,74.8,57.1,29.91,NW,315,0.0,2.7,54,0.00,,,0.00,VWS V14.01,2013-08-19 00:49:00,
2013-08-18 17:51:00,74.8,57.1,29.91,West,270,2.5,2.7,54,0.00,,,0.00,VWS V14.01,2013-08-19 00:51:00,
2013-08-18 17:52:00,74.8,57.1,29.91,West,270,0.9,2.7,54,0.00,,,0.00,VWS V14.01,2013-08-19 00:52:00,
2013-08-18 17:53:00,74.7,56.9,29.91,WNW,292,2.2,2.7,54,0.00,,,0.00,VWS V14.01,2013-08-19 00:53:00,
2013-08-18 17:54:00,74.7,56.9,29.91,WNW,292,0.0,2.7,54,0.00,,,0.00,VWS V14.01,2013-08-19 00:54:00,
2013-08-18 17:56:00,74.7,56.9,29.91,WSW,248,1.1,2.5,54,0.00,,,0.00,VWS V14.01,2013-08-19 00:56:00,
2013-08-18 17:57:00,74.7,56.9,29.91,NNW,338,1.6,2.5,54,0.00,,,0.00,VWS V14.01,2013-08-19 00:57:00,
2013-08-18 17:58:00,74.7,56.9,29.91,SSW,202,1.1,2.5,54,0.00,,,0.00,VWS V14.01,2013-08-19 00:58:00,
2013-08-18 17:59:00,74.7,56.9,29.91,West,270,0.0,2.5,54,0.00,,,0.00,VWS V14.01,2013-08-19 00:59:00,
2013-08-18 18:01:00,74.7,56.9,29.91,SW,225,1.1,2.5,54,0.00,,,0.00,VWS V14.01,2013-08-19 01:01:00,
2013-08-18 18:02:00,74.7,56.9,29.91,SW,225,1.1,2.5,54,0.00,,,0.00,VWS V14.01,2013-08-19 01:02:00,
2013-08-18 18:03:00,74.5,56.2,29.91,WNW,292,0.0,2.7,53,0.00,,,0.00,VWS V14.01,2013-08-19 01:03:00,
2013-08-18 18:04:00,74.5,56.2,29.91,ENE,68,1.1,2.7,53,0.00,,,0.00,VWS V14.01,2013-08-19 01:04:00,
2013-08-18 18:06:00,74.3,56.1,29.91,WNW,292,0.0,2.7,53,0.00,,,0.00,VWS V14.01,2013-08-19 01:06:00,
2013-08-18 18:07:00,74.3,56.1,29.91,West,270,1.6,2.7,53,0.00,,,0.00,VWS V14.01,2013-08-19 01:07:00,
2013-08-18 18:08:00,74.3,56.1,29.91,NNW,338,1.3,2.7,53,0.00,,,0.00,VWS V14.01,2013-08-19 01:08:00,
2013-08-18 18:09:00,74.3,56.6,29.91,NE,45,0.0,2.7,54,0.00,,,0.00,VWS V14.01,2013-08-19 01:09:00,
2013-08-18 18:11:00,74.3,56.6,29.91,NNW,338,4.3,4.3,54,0.00,,,0.00,VWS V14.01,2013-08-19 01:11:00,
2013-08-18 18:12:00,74.3,56.6,29.91,NNW,338,4.3,4.3,54,0.00,,,0.00,VWS V14.01,2013-08-19 01:12:00,
2013-08-18 18:13:00,74.3,56.6,29.91,WNW,292,2.0,4.3,54,0.00,,,0.00,VWS V14.01,2013-08-19 01:13:00,
2013-08-18 18:14:00,74.3,56.6,29.91,WNW,292,2.5,4.3,54,0.00,,,0.00,VWS V14.01,2013-08-19 01:14:00,
2013-08-18 18:16:00,74.3,56.6,29.91,NE,45,1.1,4.3,54,0.00,,,0.00,VWS V14.01,2013-08-19 01:16:00,
2013-08-18 18:17:00,74.1,56.4,29.91,WNW,292,0.9,4.3,54,0.00,,,0.00,VWS V14.01,2013-08-19 01:17:00,
2013-08-18 18:18:00,74.1,56.4,29.91,NNE,22,0.0,4.3,54,0.00,,,0.00,VWS V14.01,2013-08-19 01:18:00,
2013-08-18 18:19:00,74.1,56.4,29.91,NNW,338,0.0,4.3,54,0.00,,,0.00,VWS V14.01,2013-08-19 01:19:00,
2013-08-18 18:21:00,74.1,56.4,29.91,WNW,292,0.9,4.3,54,0.00,,,0.00,VWS V14.01,2013-08-19 01:21:00,
2013-08-18 18:22:00,74.1,56.4,29.91,WNW,292,0.9,4.3,54,0.00,,,0.00,VWS V14.01,2013-08-19 01:22:00,
2013-08-18 18:24:00,73.9,56.3,29.91,NW,315,2.2,4.3,54,0.00,,,0.00,VWS V14.01,2013-08-19 01:24:00,
2013-08-18 18:26:00,73.9,56.8,29.91,WSW,248,1.3,4.3,55,0.00,,,0.00,VWS V14.01,2013-08-19 01:26:00,
2013-08-18 18:27:00,73.9,56.8,29.91,WSW,248,1.3,4.3,55,0.00,,,0.00,VWS V14.01,2013-08-19 01:27:00,
2013-08-18 18:29:00,73.9,56.8,29.91,WSW,248,1.6,2.5,55,0.00,,,0.00,VWS V14.01,2013-08-19 01:29:00,
2013-08-18 18:31:00,73.8,56.6,29.91,WNW,292,0.0,2.2,55,0.00,,,0.00,VWS V14.01,2013-08-19 01:31:00,
2013-08-18 18:32:00,73.8,56.6,29.91,NNW,338,0.0,2.2,55,0.00,,,0.00,VWS V14.01,2013-08-19 01:32:00,
2013-08-18 18:33:00,73.8,56.6,29.91,NW,315,3.1,3.1,55,0.00,,,0.00,VWS V14.01,2013-08-19 01:33:00,
2013-08-18 18:34:00,73.8,57.1,29.91,WNW,292,0.9,3.1,56,0.00,,,0.00,VWS V14.01,2013-08-19 01:34:00,
2013-08-18 18:36:00,73.8,56.6,29.91,WSW,248,0.0,3.1,55,0.00,,,0.00,VWS V14.01,2013-08-19 01:36:00,
2013-08-18 18:37:00,73.8,56.6,29.91,WSW,248,0.0,3.1,55,0.00,,,0.00,VWS V14.01,2013-08-19 01:37:00,
2013-08-18 18:38:00,73.6,56.9,29.91,WSW,248,0.0,3.1,56,0.00,,,0.00,VWS V14.01,2013-08-19 01:38:00,
2013-08-18 18:39:00,73.6,56.9,29.91,NW,315,2.5,3.1,56,0.00,,,0.00,VWS V14.01,2013-08-19 01:39:00,
2013-08-18 18:42:00,73.4,56.8,29.91,WNW,292,3.1,3.1,56,0.00,,,0.00,VWS V14.01,2013-08-19 01:42:00,
2013-08-18 18:43:00,73.4,56.8,29.91,WSW,248,1.3,3.1,56,0.00,,,0.00,VWS V14.01,2013-08-19 01:43:00,
2013-08-18 18:44:00,73.4,56.8,29.91,WNW,292,0.0,3.1,56,0.00,,,0.00,VWS V14.01,2013-08-19 01:44:00,
2013-08-18 18:47:00,73.4,56.8,29.91,WNW,292,1.3,3.1,56,0.00,,,0.00,VWS V14.01,2013-08-19 01:47:00,
2013-08-18 18:48:00,73.4,56.8,29.91,WNW,292,0.0,3.1,56,0.00,,,0.00,VWS V14.01,2013-08-19 01:48:00,
2013-08-18 18:49:00,73.4,56.8,29.91,WSW,248,1.3,3.1,56,0.00,,,0.00,VWS V14.01,2013-08-19 01:49:00,
2013-08-18 18:50:00,73.2,56.6,29.91,WSW,248,0.0,3.1,56,0.00,,,0.00,VWS V14.01,2013-08-19 01:50:00,
2013-08-18 18:52:00,73.0,56.4,29.91,WNW,292,3.4,3.4,56,0.00,,,0.00,VWS V14.01,2013-08-19 01:52:00,
2013-08-18 18:53:00,73.0,56.4,29.91,SSW,202,0.0,3.4,56,0.00,,,0.00,VWS V14.01,2013-08-19 01:53:00,
2013-08-18 18:54:00,72.9,56.3,29.91,WSW,248,2.2,3.4,56,0.00,,,0.00,VWS V14.01,2013-08-19 01:54:00,
2013-08-18 18:55:00,72.9,56.3,29.91,NNW,338,0.0,3.4,56,0.00,,,0.00,VWS V14.01,2013-08-19 01:55:00,
2013-08-18 18:57:00,72.7,56.6,29.91,WNW,292,1.1,3.4,57,0.00,,,0.00,VWS V14.01,2013-08-19 01:57:00,
2013-08-18 18:58:00,72.7,56.6,29.91,WNW,292,3.1,3.4,57,0.00,,,0.00,VWS V14.01,2013-08-19 01:58:00,
2013-08-18 18:59:00,72.5,56.4,29.91,ENE,68,2.2,3.4,57,0.00,,,0.00,VWS V14.01,2013-08-19 01:59:00,
2013-08-18 19:00:00,72.5,56.4,29.91,ENE,68,2.2,3.4,57,0.00,,,0.00,VWS V14.01,2013-08-19 02:00:00,
2013-08-18 19:02:00,72.5,56.4,29.91,NW,315,0.9,3.4,57,0.00,,,0.00,VWS V14.01,2013-08-19 02:02:00,
2013-08-18 19:03:00,72.5,56.4,29.91,WSW,248,2.9,3.4,57,0.00,,,0.00,VWS V14.01,2013-08-19 02:03:00,
2013-08-18 19:05:00,72.3,56.2,29.91,WNW,292,1.3,3.4,57,0.00,,,0.00,VWS V14.01,2013-08-19 02:05:00,
2013-08-18 19:07:00,72.3,56.2,29.91,WSW,248,2.0,3.4,57,0.00,,,0.00,VWS V14.01,2013-08-19 02:07:00,
2013-08-18 19:08:00,72.3,56.2,29.91,WNW,292,0.9,3.4,57,0.00,,,0.00,VWS V14.01,2013-08-19 02:08:00,
2013-08-18 19:10:00,72.1,56.1,29.91,WNW,292,1.6,3.1,57,0.00,,,0.00,VWS V14.01,2013-08-19 02:10:00,
2013-08-18 19:12:00,72.1,56.1,29.91,WSW,248,1.6,3.1,57,0.00,,,0.00,VWS V14.01,2013-08-19 02:12:00,
2013-08-18 19:13:00,72.1,56.1,29.91,WNW,292,1.3,3.1,57,0.00,,,0.00,VWS V14.01,2013-08-19 02:13:00,
2013-08-18 19:15:00,72.0,55.9,29.91,WNW,292,0.0,3.1,57,0.00,,,0.00,VWS V14.01,2013-08-19 02:15:00,
2013-08-18 19:17:00,72.0,56.4,29.91,WNW,292,1.1,2.9,58,0.00,,,0.00,VWS V14.01,2013-08-19 02:17:00,
2013-08-18 19:18:00,72.0,56.4,29.91,NNW,338,1.1,2.9,58,0.00,,,0.00,VWS V14.01,2013-08-19 02:18:00,
2013-08-18 19:20:00,71.8,56.2,29.91,WNW,292,0.0,2.2,58,0.00,,,0.00,VWS V14.01,2013-08-19 02:20:00,
2013-08-18 19:22:00,71.6,56.1,29.91,WNW,292,0.0,2.7,58,0.00,,,0.00,VWS V14.01,2013-08-19 02:22:00,
2013-08-18 19:23:00,71.6,56.1,29.91,WNW,292,1.1,2.7,58,0.00,,,0.00,VWS V14.01,2013-08-19 02:23:00,
2013-08-18 19:25:00,71.6,56.1,29.91,NNW,338,0.0,2.7,58,0.00,,,0.00,VWS V14.01,2013-08-19 02:25:00,
2013-08-18 19:27:00,71.4,56.4,29.91,WNW,292,0.9,2.7,59,0.00,,,0.00,VWS V14.01,2013-08-19 02:27:00,
2013-08-18 19:28:00,71.4,56.4,29.91,WNW,292,0.9,2.7,59,0.00,,,0.00,VWS V14.01,2013-08-19 02:28:00,
2013-08-18 19:30:00,71.4,56.4,29.91,WNW,292,0.0,2.7,59,0.00,,,0.00,VWS V14.01,2013-08-19 02:30:00,
2013-08-18 19:32:00,71.2,56.2,29.91,WNW,292,0.0,2.7,59,0.00,,,0.00,VWS V14.01,2013-08-19 02:32:00,
2013-08-18 19:33:00,71.2,56.2,29.91,WSW,248,0.0,2.7,59,0.00,,,0.00,VWS V14.01,2013-08-19 02:33:00,
2013-08-18 19:35:00,71.2,56.2,29.91,NW,315,0.0,2.7,59,0.00,,,0.00,VWS V14.01,2013-08-19 02:35:00,
2013-08-18 19:37:00,71.1,56.0,29.91,WNW,292,0.9,3.8,59,0.00,,,0.00,VWS V14.01,2013-08-19 02:37:00,
2013-08-18 19:38:00,71.1,56.0,29.91,WNW,292,0.9,3.8,59,0.00,,,0.00,VWS V14.01,2013-08-19 02:38:00,
2013-08-18 19:40:00,70.9,55.8,29.91,SSW,202,0.0,3.8,59,0.00,,,0.00,VWS V14.01,2013-08-19 02:40:00,
2013-08-18 19:42:00,70.9,55.8,29.91,WNW,292,1.3,3.8,59,0.00,,,0.00,VWS V14.01,2013-08-19 02:42:00,
2013-08-18 19:43:00,70.9,55.8,29.91,WNW,292,1.3,3.8,59,0.00,,,0.00,VWS V14.01,2013-08-19 02:43:00,
2013-08-18 19:44:00,70.9,55.8,29.91,WNW,292,0.0,3.8,59,0.00,,,0.00,VWS V14.01,2013-08-19 02:44:00,
2013-08-18 19:45:00,70.7,56.2,29.91,WNW,292,0.0,3.8,60,0.00,,,0.00,VWS V14.01,2013-08-19 02:45:00,
2013-08-18 19:47:00,70.7,56.2,29.91,West,270,0.0,3.8,60,0.00,,,0.00,VWS V14.01,2013-08-19 02:47:00,
2013-08-18 19:48:00,70.7,56.2,29.91,West,270,0.0,3.8,60,0.00,,,0.00,VWS V14.01,2013-08-19 02:48:00,
2013-08-18 19:49:00,70.7,56.2,29.91,SW,225,0.0,3.8,60,0.00,,,0.00,VWS V14.01,2013-08-19 02:49:00,
2013-08-18 19:50:00,70.5,56.0,29.91,WNW,292,0.0,3.8,60,0.00,,,0.00,VWS V14.01,2013-08-19 02:50:00,
2013-08-18 19:53:00,70.5,56.0,29.91,East,90,1.1,1.3,60,0.00,,,0.00,VWS V14.01,2013-08-19 02:53:00,
2013-08-18 19:54:00,70.3,55.8,29.91,East,90,0.0,1.3,60,0.00,,,0.00,VWS V14.01,2013-08-19 02:54:00,
2013-08-18 19:55:00,70.3,56.3,29.91,WNW,292,0.0,1.3,61,0.00,,,0.00,VWS V14.01,2013-08-19 02:55:00,
2013-08-18 19:56:00,70.3,56.3,29.91,WNW,292,0.0,1.3,61,0.00,,,0.00,VWS V14.01,2013-08-19 02:56:00,
2013-08-18 19:58:00,70.2,56.1,29.91,East,90,0.0,1.3,61,0.00,,,0.00,VWS V14.01,2013-08-19 02:58:00,
2013-08-18 19:59:00,70.2,56.1,29.91,WSW,248,0.0,1.1,61,0.00,,,0.00,VWS V14.01,2013-08-19 02:59:00,
2013-08-18 20:00:00,70.0,55.9,29.91,WNW,292,0.0,1.1,61,0.00,,,0.00,VWS V14.01,2013-08-19 03:00:00,
2013-08-18 20:01:00,70.0,55.9,29.91,WNW,292,0.0,1.1,61,0.00,,,0.00,VWS V14.01,2013-08-19 03:01:00,
2013-08-18 20:03:00,69.8,55.8,29.91,WNW,292,0.0,1.1,61,0.00,,,0.00,VWS V14.01,2013-08-19 03:03:00,
2013-08-18 20:04:00,69.8,55.8,29.91,WNW,292,0.0,1.1,61,0.00,,,0.00,VWS V14.01,2013-08-19 03:04:00,
2013-08-18 20:05:00,69.8,55.8,29.91,WNW,292,0.0,1.1,61,0.00,,,0.00,VWS V14.01,2013-08-19 03:05:00,
2013-08-18 20:06:00,69.6,56.0,29.91,WNW,292,0.0,1.1,62,0.00,,,0.00,VWS V14.01,2013-08-19 03:06:00,
2013-08-18 20:08:00,69.6,56.0,29.91,North,0,0.0,2.0,62,0.00,,,0.00,VWS V14.01,2013-08-19 03:08:00,
2013-08-18 20:09:00,69.6,56.0,29.91,North,0,0.0,2.0,62,0.00,,,0.00,VWS V14.01,2013-08-19 03:09:00,
2013-08-18 20:10:00,69.4,55.9,29.91,West,270,0.0,2.0,62,0.00,,,0.00,VWS V14.01,2013-08-19 03:10:00,
2013-08-18 20:11:00,69.4,55.9,29.91,WSW,248,0.0,2.0,62,0.00,,,0.00,VWS V14.01,2013-08-19 03:11:00,
2013-08-18 20:13:00,69.3,55.7,29.91,NNW,338,0.0,2.0,62,0.00,,,0.00,VWS V14.01,2013-08-19 03:13:00,
2013-08-18 20:14:00,69.3,55.7,29.91,NNW,338,0.0,2.0,62,0.00,,,0.00,VWS V14.01,2013-08-19 03:14:00,
2013-08-18 20:15:00,69.3,55.7,29.91,WNW,292,0.0,2.0,62,0.00,,,0.00,VWS V14.01,2013-08-19 03:15:00,
2013-08-18 20:16:00,69.3,55.7,29.91,WNW,292,0.0,2.0,62,0.00,,,0.00,VWS V14.01,2013-08-19 03:16:00,
2013-08-18 20:18:00,69.1,55.5,29.91,WNW,292,0.9,2.0,62,0.00,,,0.00,VWS V14.01,2013-08-19 03:18:00,
2013-08-18 20:19:00,69.1,55.5,29.91,WNW,292,0.9,2.0,62,0.00,,,0.00,VWS V14.01,2013-08-19 03:19:00,
2013-08-18 20:21:00,68.9,55.8,29.91,ENE,68,0.0,2.0,63,0.00,,,0.00,VWS V14.01,2013-08-19 03:21:00,
2013-08-18 20:23:00,68.9,55.8,29.91,NW,315,1.1,1.1,63,0.00,,,0.00,VWS V14.01,2013-08-19 03:23:00,
2013-08-18 20:24:00,68.9,55.8,29.91,West,270,1.3,1.3,63,0.00,,,0.00,VWS V14.01,2013-08-19 03:24:00,
2013-08-18 20:26:00,68.7,55.6,29.91,NW,315,0.0,1.3,63,0.00,,,0.00,VWS V14.01,2013-08-19 03:26:00,
2013-08-18 20:28:00,68.5,55.5,29.91,East,90,0.0,1.3,63,0.00,,,0.00,VWS V14.01,2013-08-19 03:28:00,
2013-08-18 20:29:00,68.5,55.5,29.91,West,270,0.9,1.3,63,0.00,,,0.00,VWS V14.01,2013-08-19 03:29:00,
2013-08-18 20:31:00,68.5,55.5,29.91,NW,315,0.9,1.3,63,0.00,,,0.00,VWS V14.01,2013-08-19 03:31:00,
2013-08-18 20:33:00,68.4,55.3,29.91,WNW,292,1.6,1.6,63,0.00,,,0.00,VWS V14.01,2013-08-19 03:33:00,
2013-08-18 20:34:00,68.4,55.3,29.91,WNW,292,1.1,1.6,63,0.00,,,0.00,VWS V14.01,2013-08-19 03:34:00,
2013-08-18 20:36:00,68.4,55.3,29.91,WSW,248,0.0,1.6,63,0.00,,,0.00,VWS V14.01,2013-08-19 03:36:00,
2013-08-18 20:38:00,68.2,55.5,29.91,WSW,248,0.0,1.6,64,0.00,,,0.00,VWS V14.01,2013-08-19 03:38:00,
2013-08-18 20:39:00,68.2,55.5,29.91,WNW,292,0.0,1.6,64,0.00,,,0.00,VWS V14.01,2013-08-19 03:39:00,
2013-08-18 20:41:00,68.2,55.5,29.91,NW,315,0.0,1.6,64,0.00,,,0.00,VWS V14.01,2013-08-19 03:41:00,
2013-08-18 20:43:00,68.0,55.4,29.91,West,270,0.0,1.6,64,0.00,,,0.00,VWS V14.01,2013-08-19 03:43:00,
2013-08-18 20:44:00,68.0,55.4,29.91,SSW,202,0.0,1.6,64,0.00,,,0.00,VWS V14.01,2013-08-19 03:44:00,
2013-08-18 20:46:00,67.8,55.6,29.91,ENE,68,0.0,1.6,65,0.00,,,0.00,VWS V14.01,2013-08-19 03:46:00,
2013-08-18 20:48:00,67.8,55.6,29.91,SE,135,0.0,1.6,65,0.00,,,0.00,VWS V14.01,2013-08-19 03:48:00,
2013-08-18 20:49:00,67.6,55.5,29.91,WSW,248,0.0,1.6,65,0.00,,,0.00,VWS V14.01,2013-08-19 03:49:00,
2013-08-18 20:51:00,67.6,55.5,29.91,WSW,248,0.0,0.0,65,0.00,,,0.00,VWS V14.01,2013-08-19 03:51:00,
2013-08-18 20:53:00,67.5,55.3,29.91,WNW,292,0.0,0.0,65,0.00,,,0.00,VWS V14.01,2013-08-19 03:53:00,
2013-08-18 20:54:00,67.5,55.7,29.91,WSW,248,0.0,0.0,66,0.00,,,0.00,VWS V14.01,2013-08-19 03:54:00,
2013-08-18 20:56:00,67.5,55.7,29.91,WSW,248,0.0,0.0,66,0.00,,,0.00,VWS V14.01,2013-08-19 03:56:00,
2013-08-18 20:58:00,67.5,55.7,29.91,WSW,248,0.0,0.0,66,0.00,,,0.00,VWS V14.01,2013-08-19 03:58:00,
2013-08-18 20:59:00,67.5,55.7,29.91,WSW,248,0.0,0.0,66,0.00,,,0.00,VWS V14.01,2013-08-19 03:59:00,
2013-08-18 21:01:00,67.3,55.5,29.91,ESE,112,0.0,0.0,66,0.00,,,0.00,VWS V14.01,2013-08-19 04:01:00,
2013-08-18 21:06:00,67.1,55.4,29.91,ESE,112,0.0,0.0,66,0.00,,,0.00,VWS V14.01,2013-08-19 04:06:00,
2013-08-18 21:11:00,66.9,55.6,29.91,SE,135,0.0,0.0,67,0.00,,,0.00,VWS V14.01,2013-08-19 04:11:00,
2013-08-18 21:16:00,66.9,55.6,29.91,SW,225,0.0,0.0,67,0.00,,,0.00,VWS V14.01,2013-08-19 04:16:00,
2013-08-18 21:21:00,66.9,55.6,29.91,South,180,0.0,0.0,67,0.00,,,0.00,VWS V14.01,2013-08-19 04:21:00,
2013-08-18 21:26:00,66.6,55.7,29.91,WSW,248,0.0,0.0,68,0.00,,,0.00,VWS V14.01,2013-08-19 04:26:00,
2013-08-18 21:31:00,66.6,55.7,29.91,WSW,248,0.0,0.0,68,0.00,,,0.00,VWS V14.01,2013-08-19 04:31:00,
2013-08-18 21:36:00,66.2,55.3,29.91,WSW,248,0.0,0.0,68,0.00,,,0.00,VWS V14.01,2013-08-19 04:36:00,
2013-08-18 21:37:00,66.2,55.3,29.91,WSW,248,0.0,0.0,68,0.00,,,0.00,VWS V14.01,2013-08-19 04:37:00,
2013-08-18 21:41:00,66.2,55.7,29.91,SSW,202,0.0,0.0,69,0.00,,,0.00,VWS V14.01,2013-08-19 04:41:00,
2013-08-18 21:42:00,66.2,55.7,29.91,NNW,338,0.0,0.0,69,0.00,,,0.00,VWS V14.01,2013-08-19 04:42:00,
2013-08-18 21:46:00,66.0,55.6,29.91,SSW,202,0.0,0.0,69,0.00,,,0.00,VWS V14.01,2013-08-19 04:46:00,
2013-08-18 21:47:00,66.0,55.6,29.91,SSW,202,0.0,0.0,69,0.00,,,0.00,VWS V14.01,2013-08-19 04:47:00,
2013-08-18 21:51:00,65.8,55.8,29.91,WSW,248,0.0,0.0,70,0.00,,,0.00,VWS V14.01,2013-08-19 04:51:00,
2013-08-18 21:52:00,65.8,55.8,29.91,WSW,248,0.0,0.0,70,0.00,,,0.00,VWS V14.01,2013-08-19 04:52:00,
2013-08-18 21:56:00,65.7,55.6,29.91,ESE,112,0.0,0.0,70,0.00,,,0.00,VWS V14.01,2013-08-19 04:56:00,
2013-08-18 21:57:00,65.7,55.6,29.91,ESE,112,0.0,0.0,70,0.00,,,0.00,VWS V14.01,2013-08-19 04:57:00,
2013-08-18 22:01:00,65.5,55.5,29.94,ESE,112,0.0,0.0,70,0.00,,,0.00,VWS V14.01,2013-08-19 05:01:00,
2013-08-18 22:02:00,65.5,55.5,29.94,ESE,112,0.0,0.0,70,0.00,,,0.00,VWS V14.01,2013-08-19 05:02:00,
2013-08-18 22:06:00,65.5,55.5,29.94,ESE,112,0.0,0.9,70,0.00,,,0.00,VWS V14.01,2013-08-19 05:06:00,
2013-08-18 22:07:00,65.5,55.5,29.94,ESE,112,0.0,0.9,70,0.00,,,0.00,VWS V14.01,2013-08-19 05:07:00,
2013-08-18 22:11:00,65.3,55.7,29.94,SSE,158,0.0,1.3,71,0.00,,,0.00,VWS V14.01,2013-08-19 05:11:00,
2013-08-18 22:12:00,65.3,55.7,29.94,SSE,158,0.0,1.3,71,0.00,,,0.00,VWS V14.01,2013-08-19 05:12:00,
2013-08-18 22:17:00,65.1,55.5,29.91,ESE,112,0.0,1.3,71,0.00,,,0.00,VWS V14.01,2013-08-19 05:17:00,
2013-08-18 22:22:00,64.9,55.3,29.91,West,270,0.0,1.3,71,0.00,,,0.00,VWS V14.01,2013-08-19 05:22:00,
2013-08-18 22:27:00,64.9,55.7,29.91,ESE,112,0.0,0.0,72,0.00,,,0.00,VWS V14.01,2013-08-19 05:27:00,
2013-08-18 22:32:00,64.8,55.5,29.94,East,90,0.0,0.0,72,0.00,,,0.00,VWS V14.01,2013-08-19 05:32:00,
2013-08-18 22:37:00,64.6,55.4,29.94,SSW,202,0.0,0.0,72,0.00,,,0.00,VWS V14.01,2013-08-19 05:37:00,
2013-08-18 22:42:00,64.6,55.4,29.94,SW,225,0.0,0.0,72,0.00,,,0.00,VWS V14.01,2013-08-19 05:42:00,
2013-08-18 22:47:00,64.4,55.2,29.94,NE,45,0.0,1.1,72,0.00,,,0.00,VWS V14.01,2013-08-19 05:47:00,
2013-08-18 22:52:00,64.2,55.4,29.94,ENE,68,0.0,2.2,73,0.00,,,0.00,VWS V14.01,2013-08-19 05:52:00,
2013-08-18 22:57:00,64.0,55.2,29.94,NE,45,0.0,2.2,73,0.00,,,0.00,VWS V14.01,2013-08-19 05:57:00,
2013-08-18 23:02:00,64.0,55.2,29.91,East,90,0.0,2.2,73,0.00,,,0.00,VWS V14.01,2013-08-19 06:02:00,
2013-08-18 23:07:00,63.9,55.4,29.91,ENE,68,0.0,1.6,74,0.00,,,0.00,VWS V14.01,2013-08-19 06:07:00,
2013-08-18 23:08:00,63.7,55.2,29.91,SE,135,0.0,1.6,74,0.00,,,0.00,VWS V14.01,2013-08-19 06:08:00,
2013-08-18 23:12:00,63.7,55.2,29.91,ESE,112,0.0,1.6,74,0.00,,,0.00,VWS V14.01,2013-08-19 06:12:00,
2013-08-18 23:17:00,63.5,55.4,29.94,SW,225,0.0,1.6,75,0.00,,,0.00,VWS V14.01,2013-08-19 06:17:00,
2013-08-18 23:18:00,63.5,55.4,29.94,SSW,202,0.0,1.6,75,0.00,,,0.00,VWS V14.01,2013-08-19 06:18:00,
2013-08-18 23:22:00,63.5,55.4,29.94,SE,135,0.0,0.9,75,0.00,,,0.00,VWS V14.01,2013-08-19 06:22:00,
2013-08-18 23:23:00,63.5,55.4,29.94,SE,135,0.0,0.9,75,0.00,,,0.00,VWS V14.01,2013-08-19 06:23:00,
2013-08-18 23:27:00,63.5,55.4,29.94,SSE,158,0.0,0.0,75,0.00,,,0.00,VWS V14.01,2013-08-19 06:27:00,
2013-08-18 23:28:00,63.5,55.4,29.94,South,180,0.0,0.0,75,0.00,,,0.00,VWS V14.01,2013-08-19 06:28:00,
2013-08-18 23:32:00,63.3,55.3,29.94,SSE,158,0.0,0.0,75,0.00,,,0.00,VWS V14.01,2013-08-19 06:32:00,
2013-08-18 23:33:00,63.3,55.3,29.94,SSW,202,0.0,0.0,75,0.00,,,0.00,VWS V14.01,2013-08-19 06:33:00,
2013-08-18 23:37:00,63.1,55.5,29.94,WSW,248,0.0,0.9,76,0.00,,,0.00,VWS V14.01,2013-08-19 06:37:00,
2013-08-18 23:38:00,63.1,55.5,29.94,WSW,248,0.0,0.9,76,0.00,,,0.00,VWS V14.01,2013-08-19 06:38:00,
2013-08-18 23:42:00,63.1,55.5,29.94,East,90,0.0,0.9,76,0.00,,,0.00,VWS V14.01,2013-08-19 06:42:00,
2013-08-18 23:43:00,63.1,55.5,29.94,SSW,202,0.0,0.9,76,0.00,,,0.00,VWS V14.01,2013-08-19 06:43:00,
2013-08-18 23:47:00,63.1,55.5,29.94,WSW,248,0.0,0.9,76,0.00,,,0.00,VWS V14.01,2013-08-19 06:47:00,
2013-08-18 23:48:00,63.1,55.5,29.94,WSW,248,0.0,0.9,76,0.00,,,0.00,VWS V14.01,2013-08-19 06:48:00,
2013-08-18 23:52:00,62.8,55.1,29.94,South,180,0.0,0.0,76,0.00,,,0.00,VWS V14.01,2013-08-19 06:52:00,
2013-08-18 23:53:00,62.8,55.1,29.94,South,180,0.0,0.0,76,0.00,,,0.00,VWS V14.01,2013-08-19 06:53:00,
2013-08-18 23:57:00,62.8,55.5,29.94,SE,135,0.0,0.0,77,0.00,,,0.00,VWS V14.01,2013-08-19 06:57:00,
2013-08-18 23:58:00,62.8,55.5,29.94,SE,135,0.0,0.0,77,0.00,,,0.00,VWS V14.01,2013-08-19 06:58:00,